Time,TemperatureF,DewpointF,PressureIn,WindDirection,WindDirectionDegrees,WindSpeedMPH,WindSpeedGustMPH,Humidity,HourlyPrecipIn,Conditions,Clouds,dailyrainin,SoftwareType,DateUTC
2013-01-02 00:00:00,23.3,16.6,30.10,NW,323,4.0,5.0,75,0.00,,---,0.00,VWS V14.00,2013-01-02 05:00:00,
2013-01-02 00:01:00,23.3,16.6,30.10,NW,321,0.0,5.0,75,0.00,,---,0.00,VWS V14.00,2013-01-02 05:01:00,
2013-01-02 00:05:00,23.3,16.6,30.10,WNW,300,4.0,5.0,75,0.00,,---,0.00,VWS V14.00,2013-01-02 05:05:00,
2013-01-02 00:06:00,23.3,16.6,30.10,WNW,300,2.0,5.0,75,0.00,,---,0.00,VWS V14.00,2013-01-02 05:06:00,
2013-01-02 00:09:00,23.3,16.6,30.10,WNW,303,8.0,9.0,75,0.00,,---,0.00,VWS V14.00,2013-01-02 05:09:00,
2013-01-02 00:10:00,23.3,16.6,30.10,WNW,292,2.0,10.0,75,0.00,,---,0.00,VWS V14.00,2013-01-02 05:10:00,
2013-01-02 00:11:00,23.3,16.6,30.10,WNW,293,2.0,10.0,75,0.00,,---,0.00,VWS V14.00,2013-01-02 05:11:00,
2013-01-02 00:14:00,23.3,16.6,30.10,WNW,294,0.0,10.0,75,0.00,,---,0.00,VWS V14.00,2013-01-02 05:14:00,
2013-01-02 00:16:00,23.3,16.6,30.10,WNW,296,5.0,10.0,75,0.00,,---,0.00,VWS V14.00,2013-01-02 05:16:00,
2013-01-02 00:17:00,23.3,16.6,30.10,WNW,298,1.0,10.0,75,0.00,,---,0.00,VWS V14.00,2013-01-02 05:17:00,
2013-01-02 00:19:00,23.3,16.6,30.10,NW,315,2.0,10.0,75,0.00,,---,0.00,VWS V14.00,2013-01-02 05:19:00,
2013-01-02 00:22:00,23.3,16.6,30.10,NW,309,3.0,10.0,75,0.00,,---,0.00,VWS V14.00,2013-01-02 05:22:00,
2013-01-02 00:23:00,23.3,16.6,30.10,WNW,287,4.0,10.0,75,0.00,,---,0.00,VWS V14.00,2013-01-02 05:23:00,
2013-01-02 00:24:00,23.3,16.6,30.10,WNW,290,3.0,10.0,75,0.00,,---,0.00,VWS V14.00,2013-01-02 05:24:00,
2013-01-02 00:27:00,23.3,16.6,30.10,NW,321,2.0,10.0,75,0.00,,---,0.00,VWS V14.00,2013-01-02 05:27:00,
2013-01-02 00:28:00,23.3,16.6,30.09,NW,321,2.0,10.0,75,0.00,,---,0.00,VWS V14.00,2013-01-02 05:28:00,
2013-01-02 00:29:00,23.3,16.6,30.10,NW,325,4.0,9.0,75,0.00,,---,0.00,VWS V14.00,2013-01-02 05:29:00,
2013-01-02 00:32:00,23.3,16.6,30.09,WNW,298,2.0,9.0,75,0.00,,---,0.00,VWS V14.00,2013-01-02 05:32:00,
2013-01-02 00:34:00,23.4,16.7,30.10,NW,309,2.0,9.0,75,0.00,,---,0.00,VWS V14.00,2013-01-02 05:34:00,
2013-01-02 00:35:00,23.4,16.7,30.10,WNW,297,3.0,9.0,75,0.00,,---,0.00,VWS V14.00,2013-01-02 05:35:00,
2013-01-02 00:38:00,23.4,16.7,30.10,WNW,298,3.0,9.0,75,0.00,,---,0.00,VWS V14.00,2013-01-02 05:38:00,
2013-01-02 00:39:00,23.4,16.7,30.10,WNW,298,3.0,9.0,75,0.00,,---,0.00,VWS V14.00,2013-01-02 05:39:00,
2013-01-02 00:40:00,23.4,16.7,30.10,NW,306,2.0,9.0,75,0.00,,---,0.00,VWS V14.00,2013-01-02 05:40:00,
2013-01-02 00:41:00,23.4,16.7,30.10,NW,306,2.0,9.0,75,0.00,,---,0.00,VWS V14.00,2013-01-02 05:41:00,
2013-01-02 00:44:00,23.4,16.7,30.10,NW,307,4.0,9.0,75,0.00,,---,0.00,VWS V14.00,2013-01-02 05:44:00,
2013-01-02 00:46:00,23.4,16.7,30.09,WNW,296,3.0,9.0,75,0.00,,---,0.00,VWS V14.00,2013-01-02 05:46:00,
2013-01-02 00:49:00,23.4,16.7,30.09,WNW,297,0.0,9.0,75,0.00,,---,0.00,VWS V14.00,2013-01-02 05:49:00,
2013-01-02 00:50:00,23.4,16.7,30.09,WNW,300,3.0,9.0,75,0.00,,---,0.00,VWS V14.00,2013-01-02 05:50:00,
2013-01-02 00:51:00,23.4,16.7,30.09,WNW,302,2.0,9.0,75,0.00,,---,0.00,VWS V14.00,2013-01-02 05:51:00,
2013-01-02 00:52:00,23.4,16.7,30.09,WNW,293,3.0,9.0,75,0.00,,---,0.00,VWS V14.00,2013-01-02 05:52:00,
2013-01-02 00:54:00,23.4,16.7,30.09,WNW,295,1.0,9.0,75,0.00,,---,0.00,VWS V14.00,2013-01-02 05:54:00,
2013-01-02 00:55:00,23.4,16.7,30.09,WNW,295,0.0,9.0,75,0.00,,---,0.00,VWS V14.00,2013-01-02 05:55:00,
2013-01-02 00:56:00,23.4,16.7,30.09,WNW,295,0.0,9.0,75,0.00,,---,0.00,VWS V14.00,2013-01-02 05:56:00,
2013-01-02 00:57:00,23.4,16.7,30.09,WNW,295,4.0,9.0,75,0.00,,---,0.00,VWS V14.00,2013-01-02 05:57:00,
2013-01-02 00:59:00,23.4,16.7,30.10,NW,305,5.0,8.0,75,0.00,,---,0.00,VWS V14.00,2013-01-02 05:59:00,
2013-01-02 01:01:00,23.4,16.7,30.10,WNW,300,0.0,8.0,75,0.00,,---,0.00,VWS V14.00,2013-01-02 06:01:00,
2013-01-02 01:02:00,23.4,16.7,30.10,WNW,300,0.0,8.0,75,0.00,,---,0.00,VWS V14.00,2013-01-02 06:02:00,
2013-01-02 01:05:00,23.4,16.7,30.09,WNW,300,5.0,8.0,75,0.00,,---,0.00,VWS V14.00,2013-01-02 06:05:00,
2013-01-02 01:07:00,23.5,16.8,30.09,WNW,300,1.0,8.0,75,0.00,,---,0.00,VWS V14.00,2013-01-02 06:07:00,
2013-01-02 01:08:00,23.5,16.8,30.09,WNW,300,4.0,8.0,75,0.00,,---,0.00,VWS V14.00,2013-01-02 06:08:00,
2013-01-02 01:10:00,23.5,16.8,30.09,WNW,301,3.0,8.0,75,0.00,,---,0.00,VWS V14.00,2013-01-02 06:10:00,
2013-01-02 01:12:00,23.5,16.8,30.09,NW,326,4.0,8.0,75,0.00,,---,0.00,VWS V14.00,2013-01-02 06:12:00,
2013-01-02 01:14:00,23.5,16.8,30.09,NW,320,0.0,8.0,75,0.00,,---,0.00,VWS V14.00,2013-01-02 06:14:00,
2013-01-02 01:17:00,23.5,16.8,30.09,NW,314,1.0,8.0,75,0.00,,---,0.00,VWS V14.00,2013-01-02 06:17:00,
2013-01-02 01:18:00,23.5,16.8,30.09,WNW,301,4.0,8.0,75,0.00,,---,0.00,VWS V14.00,2013-01-02 06:18:00,
2013-01-02 01:20:00,23.5,16.8,30.09,NW,304,1.0,8.0,75,0.00,,---,0.00,VWS V14.00,2013-01-02 06:20:00,
2013-01-02 01:22:00,23.5,16.8,30.09,NNW,327,7.0,8.0,75,0.00,,---,0.00,VWS V14.00,2013-01-02 06:22:00,
2013-01-02 01:23:00,23.5,16.8,30.09,NW,325,2.0,8.0,75,0.00,,---,0.00,VWS V14.00,2013-01-02 06:23:00,
2013-01-02 01:26:00,23.5,16.8,30.09,NNW,345,5.0,9.0,75,0.00,,---,0.00,VWS V14.00,2013-01-02 06:26:00,
2013-01-02 01:27:00,23.5,16.8,30.09,NW,326,6.0,9.0,75,0.00,,---,0.00,VWS V14.00,2013-01-02 06:27:00,
2013-01-02 01:28:00,23.5,16.8,30.08,NNW,329,2.0,4.0,75,0.00,,---,0.00,VWS V14.00,2013-01-02 06:28:00,
2013-01-02 01:30:00,23.5,16.8,30.08,NNW,336,2.0,7.0,75,0.00,,---,0.00,VWS V14.00,2013-01-02 06:30:00,
2013-01-02 01:32:00,23.5,16.8,30.09,NW,318,5.0,9.0,75,0.00,,---,0.00,VWS V14.00,2013-01-02 06:32:00,
2013-01-02 01:33:00,23.5,16.8,30.09,NW,323,3.0,9.0,75,0.00,,---,0.00,VWS V14.00,2013-01-02 06:33:00,
2013-01-02 01:34:00,23.5,16.8,30.09,NW,320,2.0,9.0,75,0.00,,---,0.00,VWS V14.00,2013-01-02 06:34:00,
2013-01-02 01:36:00,23.5,16.8,30.09,NW,315,5.0,9.0,75,0.00,,---,0.00,VWS V14.00,2013-01-02 06:36:00,
2013-01-02 01:38:00,23.5,16.8,30.09,WNW,298,3.0,9.0,75,0.00,,---,0.00,VWS V14.00,2013-01-02 06:38:00,
2013-01-02 01:39:00,23.5,16.8,30.09,WNW,302,4.0,9.0,75,0.00,,---,0.00,VWS V14.00,2013-01-02 06:39:00,
2013-01-02 01:40:00,23.5,16.8,30.09,WNW,302,1.0,9.0,75,0.00,,---,0.00,VWS V14.00,2013-01-02 06:40:00,
2013-01-02 01:41:00,23.5,16.8,30.09,NNW,327,5.0,9.0,75,0.00,,---,0.00,VWS V14.00,2013-01-02 06:41:00,
2013-01-02 01:43:00,23.5,16.8,30.09,WNW,295,3.0,9.0,75,0.00,,---,0.00,VWS V14.00,2013-01-02 06:43:00,
2013-01-02 01:45:00,23.5,16.8,30.09,NW,311,4.0,9.0,75,0.00,,---,0.00,VWS V14.00,2013-01-02 06:45:00,
2013-01-02 01:46:00,23.5,16.8,30.09,NW,326,3.0,9.0,75,0.00,,---,0.00,VWS V14.00,2013-01-02 06:46:00,
2013-01-02 01:48:00,23.5,16.8,30.09,NW,308,5.0,9.0,75,0.00,,---,0.00,VWS V14.00,2013-01-02 06:48:00,
2013-01-02 01:50:00,23.5,16.8,30.09,WNW,303,2.0,9.0,75,0.00,,---,0.00,VWS V14.00,2013-01-02 06:50:00,
2013-01-02 01:51:00,23.5,16.8,30.09,WNW,303,3.0,9.0,75,0.00,,---,0.00,VWS V14.00,2013-01-02 06:51:00,
2013-01-02 01:53:00,23.5,16.8,30.09,NW,314,4.0,9.0,75,0.00,,---,0.00,VWS V14.00,2013-01-02 06:53:00,
2013-01-02 01:55:00,23.5,16.8,30.09,WNW,292,4.0,11.0,75,0.00,,---,0.00,VWS V14.00,2013-01-02 06:55:00,
2013-01-02 01:56:00,23.5,16.8,30.09,WNW,292,3.0,11.0,75,0.00,,---,0.00,VWS V14.00,2013-01-02 06:56:00,
2013-01-02 01:58:00,23.6,16.9,30.09,WNW,298,4.0,6.0,75,0.00,,---,0.00,VWS V14.00,2013-01-02 06:58:00,
2013-01-02 02:00:00,23.6,16.9,30.08,WNW,297,5.0,10.0,75,0.00,,---,0.00,VWS V14.00,2013-01-02 07:00:00,
2013-01-02 02:01:00,23.6,16.9,30.08,WNW,298,3.0,10.0,75,0.00,,---,0.00,VWS V14.00,2013-01-02 07:01:00,
2013-01-02 02:03:00,23.6,16.9,30.08,WNW,300,4.0,10.0,75,0.00,,---,0.00,VWS V14.00,2013-01-02 07:03:00,
2013-01-02 02:04:00,23.6,16.9,30.08,NW,319,3.0,10.0,75,0.00,,---,0.00,VWS V14.00,2013-01-02 07:04:00,
2013-01-02 02:06:00,23.6,16.9,30.08,NW,319,7.0,10.0,75,0.00,,---,0.00,VWS V14.00,2013-01-02 07:06:00,
2013-01-02 02:07:00,23.6,16.9,30.09,West,279,6.0,10.0,75,0.00,,---,0.00,VWS V14.00,2013-01-02 07:07:00,
2013-01-02 02:10:00,23.6,16.9,30.09,WNW,291,7.0,10.0,75,0.00,,---,0.00,VWS V14.00,2013-01-02 07:10:00,
2013-01-02 02:11:00,23.6,16.9,30.09,WNW,282,7.0,11.0,75,0.00,,---,0.00,VWS V14.00,2013-01-02 07:11:00,
2013-01-02 02:13:00,23.6,16.5,30.09,WNW,294,0.0,11.0,74,0.00,,---,0.00,VWS V14.00,2013-01-02 07:13:00,
2013-01-02 02:15:00,23.7,16.6,30.09,NW,320,4.0,11.0,74,0.00,,---,0.00,VWS V14.00,2013-01-02 07:15:00,
2013-01-02 02:17:00,23.8,17.0,30.09,WNW,296,4.0,11.0,75,0.00,,---,0.00,VWS V14.00,2013-01-02 07:17:00,
2013-01-02 02:18:00,23.7,16.6,30.09,WNW,302,1.0,11.0,74,0.00,,---,0.00,VWS V14.00,2013-01-02 07:18:00,
2013-01-02 02:20:00,23.8,16.7,30.09,WNW,295,3.0,11.0,74,0.00,,---,0.00,VWS V14.00,2013-01-02 07:20:00,
2013-01-02 02:22:00,23.8,17.0,30.09,NW,316,4.0,11.0,75,0.00,,---,0.00,VWS V14.00,2013-01-02 07:22:00,
2013-01-02 02:23:00,23.8,17.0,30.09,WNW,294,6.0,11.0,75,0.00,,---,0.00,VWS V14.00,2013-01-02 07:23:00,
2013-01-02 02:25:00,23.8,16.7,30.09,West,279,6.0,11.0,74,0.00,,---,0.00,VWS V14.00,2013-01-02 07:25:00,
2013-01-02 02:27:00,23.8,16.7,30.09,WNW,290,5.0,11.0,74,0.00,,---,0.00,VWS V14.00,2013-01-02 07:27:00,
2013-01-02 02:28:00,23.8,16.7,30.09,West,269,2.0,11.0,74,0.00,,---,0.00,VWS V14.00,2013-01-02 07:28:00,
2013-01-02 02:31:00,23.8,16.7,30.09,NW,310,3.0,7.0,74,0.00,,---,0.00,VWS V14.00,2013-01-02 07:31:00,
2013-01-02 02:32:00,23.8,16.7,30.09,NW,313,7.0,9.0,74,0.00,,---,0.00,VWS V14.00,2013-01-02 07:32:00,
2013-01-02 02:34:00,23.8,17.0,30.09,WNW,297,1.0,9.0,75,0.00,,---,0.00,VWS V14.00,2013-01-02 07:34:00,
2013-01-02 02:35:00,23.8,17.0,30.09,WNW,297,2.0,9.0,75,0.00,,---,0.00,VWS V14.00,2013-01-02 07:35:00,
2013-01-02 02:37:00,23.8,16.7,30.10,WNW,298,2.0,9.0,74,0.00,,---,0.00,VWS V14.00,2013-01-02 07:37:00,
2013-01-02 02:38:00,23.8,16.7,30.10,WNW,299,3.0,9.0,74,0.00,,---,0.00,VWS V14.00,2013-01-02 07:38:00,
2013-01-02 02:40:00,23.8,17.0,30.10,WNW,292,0.0,9.0,75,0.00,,---,0.00,VWS V14.00,2013-01-02 07:40:00,
2013-01-02 02:41:00,23.8,17.0,30.10,WNW,291,2.0,9.0,75,0.00,,---,0.00,VWS V14.00,2013-01-02 07:41:00,
2013-01-02 02:42:00,23.8,17.0,30.10,WNW,288,3.0,9.0,75,0.00,,---,0.00,VWS V14.00,2013-01-02 07:42:00,
2013-01-02 02:43:00,23.8,17.0,30.10,WNW,283,0.0,9.0,75,0.00,,---,0.00,VWS V14.00,2013-01-02 07:43:00,
2013-01-02 02:46:00,23.8,17.0,30.10,WNW,299,6.0,9.0,75,0.00,,---,0.00,VWS V14.00,2013-01-02 07:46:00,
2013-01-02 02:47:00,23.8,17.0,30.10,NW,305,3.0,9.0,75,0.00,,---,0.00,VWS V14.00,2013-01-02 07:47:00,
2013-01-02 02:48:00,23.8,17.0,30.10,WNW,292,0.0,9.0,75,0.00,,---,0.00,VWS V14.00,2013-01-02 07:48:00,
2013-01-02 02:49:00,23.9,17.1,30.10,West,277,0.0,9.0,75,0.00,,---,0.00,VWS V14.00,2013-01-02 07:49:00,
2013-01-02 02:52:00,23.9,17.1,30.10,WNW,288,1.0,9.0,75,0.00,,---,0.00,VWS V14.00,2013-01-02 07:52:00,
2013-01-02 02:53:00,23.9,17.1,30.10,West,275,2.0,9.0,75,0.00,,---,0.00,VWS V14.00,2013-01-02 07:53:00,
2013-01-02 02:54:00,23.9,17.1,30.10,West,275,2.0,9.0,75,0.00,,---,0.00,VWS V14.00,2013-01-02 07:54:00,
2013-01-02 02:57:00,23.9,17.1,30.10,WNW,288,2.0,9.0,75,0.00,,---,0.00,VWS V14.00,2013-01-02 07:57:00,
2013-01-02 03:00:00,23.9,17.1,30.10,WNW,294,4.0,10.0,75,0.00,,---,0.00,VWS V14.00,2013-01-02 08:00:00,
2013-01-02 03:01:00,23.9,17.1,30.10,WNW,299,8.0,10.0,75,0.00,,---,0.00,VWS V14.00,2013-01-02 08:01:00,
2013-01-02 03:02:00,23.9,17.1,30.10,WNW,300,4.0,10.0,75,0.00,,---,0.00,VWS V14.00,2013-01-02 08:02:00,
2013-01-02 03:03:00,23.9,17.1,30.10,WNW,300,3.0,10.0,75,0.00,,---,0.00,VWS V14.00,2013-01-02 08:03:00,
2013-01-02 03:06:00,23.9,16.8,30.11,WNW,302,3.0,10.0,74,0.00,,---,0.00,VWS V14.00,2013-01-02 08:06:00,
2013-01-02 03:07:00,23.9,16.8,30.11,WNW,287,6.0,10.0,74,0.00,,---,0.00,VWS V14.00,2013-01-02 08:07:00,
2013-01-02 03:08:00,23.9,16.8,30.11,West,279,3.0,10.0,74,0.00,,---,0.00,VWS V14.00,2013-01-02 08:08:00,
2013-01-02 03:09:00,24.0,17.2,30.11,WNW,290,5.0,10.0,75,0.00,,---,0.00,VWS V14.00,2013-01-02 08:09:00,
2013-01-02 03:12:00,24.0,17.2,30.11,WNW,289,1.0,10.0,75,0.00,,---,0.00,VWS V14.00,2013-01-02 08:12:00,
2013-01-02 03:14:00,24.0,17.2,30.11,West,277,6.0,10.0,75,0.00,,---,0.00,VWS V14.00,2013-01-02 08:14:00,
2013-01-02 03:15:00,24.0,17.2,30.11,West,276,5.0,10.0,75,0.00,,---,0.00,VWS V14.00,2013-01-02 08:15:00,
2013-01-02 03:17:00,24.0,17.2,30.12,West,273,3.0,10.0,75,0.00,,---,0.00,VWS V14.00,2013-01-02 08:17:00,
2013-01-02 03:19:00,24.0,16.9,30.11,NW,309,2.0,10.0,74,0.00,,---,0.00,VWS V14.00,2013-01-02 08:19:00,
2013-01-02 03:20:00,24.0,16.9,30.11,NW,311,3.0,10.0,74,0.00,,---,0.00,VWS V14.00,2013-01-02 08:20:00,
2013-01-02 03:22:00,24.0,16.9,30.12,WNW,302,2.0,10.0,74,0.00,,---,0.00,VWS V14.00,2013-01-02 08:22:00,
2013-01-02 03:24:00,24.0,16.9,30.12,WNW,296,0.0,10.0,74,0.00,,---,0.00,VWS V14.00,2013-01-02 08:24:00,
2013-01-02 03:25:00,24.0,16.9,30.11,WNW,296,2.0,10.0,74,0.00,,---,0.00,VWS V14.00,2013-01-02 08:25:00,
2013-01-02 03:28:00,24.0,16.9,30.11,West,272,4.0,10.0,74,0.00,,---,0.00,VWS V14.00,2013-01-02 08:28:00,
2013-01-02 03:29:00,24.0,16.9,30.11,West,275,0.0,3.0,74,0.00,,---,0.00,VWS V14.00,2013-01-02 08:29:00,
2013-01-02 03:30:00,24.0,16.9,30.11,West,275,3.0,3.0,74,0.00,,---,0.00,VWS V14.00,2013-01-02 08:30:00,
2013-01-02 03:33:00,24.0,16.9,30.11,NNW,330,4.0,6.0,74,0.00,,---,0.00,VWS V14.00,2013-01-02 08:33:00,
2013-01-02 03:34:00,24.0,16.9,30.11,NW,326,0.0,6.0,74,0.00,,---,0.00,VWS V14.00,2013-01-02 08:34:00,
2013-01-02 03:35:00,24.0,16.9,30.11,NW,326,0.0,6.0,74,0.00,,---,0.00,VWS V14.00,2013-01-02 08:35:00,
2013-01-02 03:36:00,24.0,16.9,30.11,NW,318,4.0,6.0,74,0.00,,---,0.00,VWS V14.00,2013-01-02 08:36:00,
2013-01-02 03:38:00,24.0,16.9,30.11,NW,318,0.0,6.0,74,0.00,,---,0.00,VWS V14.00,2013-01-02 08:38:00,
2013-01-02 03:40:00,24.0,16.9,30.11,WNW,290,2.0,6.0,74,0.00,,---,0.00,VWS V14.00,2013-01-02 08:40:00,
2013-01-02 03:43:00,24.0,17.2,30.12,WNW,288,0.0,7.0,75,0.00,,---,0.00,VWS V14.00,2013-01-02 08:43:00,
2013-01-02 03:45:00,24.0,17.2,30.12,WNW,299,5.0,7.0,75,0.00,,---,0.00,VWS V14.00,2013-01-02 08:45:00,
2013-01-02 03:46:00,24.1,17.3,30.12,WNW,300,2.0,7.0,75,0.00,,---,0.00,VWS V14.00,2013-01-02 08:46:00,
2013-01-02 03:48:00,24.1,17.0,30.12,WNW,292,4.0,9.0,74,0.00,,---,0.00,VWS V14.00,2013-01-02 08:48:00,
2013-01-02 03:50:00,24.1,17.0,30.12,WNW,294,4.0,9.0,74,0.00,,---,0.00,VWS V14.00,2013-01-02 08:50:00,
2013-01-02 03:51:00,24.1,17.0,30.11,WNW,295,1.0,9.0,74,0.00,,---,0.00,VWS V14.00,2013-01-02 08:51:00,
2013-01-02 03:54:00,24.1,17.0,30.12,WNW,285,3.0,9.0,74,0.00,,---,0.00,VWS V14.00,2013-01-02 08:54:00,
2013-01-02 03:55:00,24.1,17.0,30.12,West,277,6.0,9.0,74,0.00,,---,0.00,VWS V14.00,2013-01-02 08:55:00,
2013-01-02 03:57:00,24.1,17.3,30.12,WNW,284,6.0,9.0,75,0.00,,---,0.00,VWS V14.00,2013-01-02 08:57:00,
2013-01-02 03:59:00,24.1,17.3,30.12,NW,306,5.0,10.0,75,0.00,,---,0.00,VWS V14.00,2013-01-02 08:59:00,
2013-01-02 04:01:00,24.1,17.0,30.11,West,281,3.0,11.0,74,0.00,,---,0.00,VWS V14.00,2013-01-02 09:01:00,
2013-01-02 04:02:00,24.1,17.0,30.11,WNW,292,5.0,11.0,74,0.00,,---,0.00,VWS V14.00,2013-01-02 09:02:00,
2013-01-02 04:04:00,24.1,17.0,30.10,NW,307,11.0,13.0,74,0.00,,---,0.00,VWS V14.00,2013-01-02 09:04:00,
2013-01-02 04:06:00,24.1,17.0,30.10,NW,313,3.0,13.0,74,0.00,,---,0.00,VWS V14.00,2013-01-02 09:06:00,
2013-01-02 04:08:00,24.1,17.0,30.10,WNW,302,3.0,13.0,74,0.00,,---,0.00,VWS V14.00,2013-01-02 09:08:00,
2013-01-02 04:10:00,24.0,16.9,30.10,WNW,289,4.0,13.0,74,0.00,,---,0.00,VWS V14.00,2013-01-02 09:10:00,
2013-01-02 04:11:00,24.0,16.9,30.10,WNW,300,5.0,13.0,74,0.00,,---,0.00,VWS V14.00,2013-01-02 09:11:00,
2013-01-02 04:13:00,24.0,16.9,30.10,NW,305,5.0,13.0,74,0.00,,---,0.00,VWS V14.00,2013-01-02 09:13:00,
2013-01-02 04:15:00,24.0,16.9,30.10,NW,310,3.0,13.0,74,0.00,,---,0.00,VWS V14.00,2013-01-02 09:15:00,
2013-01-02 04:16:00,24.0,16.9,30.10,NNW,330,5.0,13.0,74,0.00,,---,0.00,VWS V14.00,2013-01-02 09:16:00,
2013-01-02 04:18:00,24.0,17.2,30.10,WNW,288,3.0,13.0,75,0.00,,---,0.00,VWS V14.00,2013-01-02 09:18:00,
2013-01-02 04:20:00,24.0,17.2,30.10,WNW,288,3.0,13.0,75,0.00,,---,0.00,VWS V14.00,2013-01-02 09:20:00,
2013-01-02 04:21:00,24.0,17.2,30.10,NW,325,6.0,13.0,75,0.00,,---,0.00,VWS V14.00,2013-01-02 09:21:00,
2013-01-02 04:22:00,24.0,17.2,30.10,NW,316,1.0,13.0,75,0.00,,---,0.00,VWS V14.00,2013-01-02 09:22:00,
2013-01-02 04:23:00,24.0,17.2,30.10,NW,308,3.0,13.0,75,0.00,,---,0.00,VWS V14.00,2013-01-02 09:23:00,
2013-01-02 04:26:00,24.0,17.2,30.10,NW,323,2.0,13.0,75,0.00,,---,0.00,VWS V14.00,2013-01-02 09:26:00,
2013-01-02 04:27:00,24.0,17.2,30.10,NW,322,5.0,13.0,75,0.00,,---,0.00,VWS V14.00,2013-01-02 09:27:00,
2013-01-02 04:28:00,24.0,17.2,30.10,NW,321,2.0,4.0,75,0.00,,---,0.00,VWS V14.00,2013-01-02 09:28:00,
2013-01-02 04:32:00,24.0,17.2,30.10,NW,322,3.0,6.0,75,0.00,,---,0.00,VWS V14.00,2013-01-02 09:32:00,
2013-01-02 04:33:00,24.0,17.2,30.10,NW,322,3.0,6.0,75,0.00,,---,0.00,VWS V14.00,2013-01-02 09:33:00,
2013-01-02 04:35:00,24.0,17.2,30.10,NW,317,3.0,6.0,75,0.00,,---,0.00,VWS V14.00,2013-01-02 09:35:00,
2013-01-02 04:37:00,24.0,17.2,30.10,NW,317,2.0,6.0,75,0.00,,---,0.00,VWS V14.00,2013-01-02 09:37:00,
2013-01-02 04:38:00,24.0,17.2,30.10,West,272,8.0,9.0,75,0.00,,---,0.00,VWS V14.00,2013-01-02 09:38:00,
2013-01-02 04:40:00,24.0,17.2,30.10,West,271,2.0,9.0,75,0.00,,---,0.00,VWS V14.00,2013-01-02 09:40:00,
2013-01-02 04:42:00,24.0,17.2,30.11,West,271,1.0,9.0,75,0.00,,---,0.00,VWS V14.00,2013-01-02 09:42:00,
2013-01-02 04:46:00,24.1,17.3,30.11,West,279,3.0,9.0,75,0.00,,---,0.00,VWS V14.00,2013-01-02 09:46:00,
2013-01-02 04:47:00,24.1,17.3,30.10,West,279,0.0,9.0,75,0.00,,---,0.00,VWS V14.00,2013-01-02 09:47:00,
2013-01-02 04:49:00,24.1,17.3,30.10,West,279,0.0,9.0,75,0.00,,---,0.00,VWS V14.00,2013-01-02 09:49:00,
2013-01-02 04:51:00,24.1,17.3,30.10,West,268,3.0,9.0,75,0.00,,---,0.00,VWS V14.00,2013-01-02 09:51:00,
2013-01-02 04:52:00,24.1,17.3,30.10,West,270,1.0,9.0,75,0.00,,---,0.00,VWS V14.00,2013-01-02 09:52:00,
2013-01-02 04:53:00,24.1,17.3,30.10,West,270,4.0,9.0,75,0.00,,---,0.00,VWS V14.00,2013-01-02 09:53:00,
2013-01-02 04:54:00,24.1,17.3,30.10,West,270,2.0,9.0,75,0.00,,---,0.00,VWS V14.00,2013-01-02 09:54:00,
2013-01-02 04:57:00,24.1,17.3,30.10,West,270,2.0,9.0,75,0.00,,---,0.00,VWS V14.00,2013-01-02 09:57:00,
2013-01-02 04:58:00,24.1,17.3,30.10,West,270,3.0,9.0,75,0.00,,---,0.00,VWS V14.00,2013-01-02 09:58:00,
2013-01-02 05:00:00,24.2,17.4,30.10,West,270,0.0,4.0,75,0.00,,---,0.00,VWS V14.00,2013-01-02 10:00:00,
2013-01-02 05:02:00,24.2,17.4,30.10,West,271,3.0,4.0,75,0.00,,---,0.00,VWS V14.00,2013-01-02 10:02:00,
2013-01-02 05:03:00,24.2,17.4,30.09,West,271,3.0,4.0,75,0.00,,---,0.00,VWS V14.00,2013-01-02 10:03:00,
2013-01-02 05:04:00,24.2,17.4,30.09,West,271,0.0,4.0,75,0.00,,---,0.00,VWS V14.00,2013-01-02 10:04:00,
2013-01-02 05:05:00,24.2,17.4,30.09,West,271,0.0,4.0,75,0.00,,---,0.00,VWS V14.00,2013-01-02 10:05:00,
2013-01-02 05:07:00,24.2,17.4,30.09,West,275,5.0,5.0,75,0.00,,---,0.00,VWS V14.00,2013-01-02 10:07:00,
2013-01-02 05:08:00,24.2,17.4,30.09,West,277,2.0,5.0,75,0.00,,---,0.00,VWS V14.00,2013-01-02 10:08:00,
2013-01-02 05:09:00,24.2,17.4,30.09,West,277,0.0,5.0,75,0.00,,---,0.00,VWS V14.00,2013-01-02 10:09:00,
2013-01-02 05:11:00,24.2,17.4,30.09,West,277,0.0,5.0,75,0.00,,---,0.00,VWS V14.00,2013-01-02 10:11:00,
2013-01-02 05:13:00,24.2,17.4,30.09,West,277,0.0,5.0,75,0.00,,---,0.00,VWS V14.00,2013-01-02 10:13:00,
2013-01-02 05:16:00,24.2,17.4,30.10,West,277,0.0,5.0,75,0.00,,---,0.00,VWS V14.00,2013-01-02 10:16:00,
2013-01-02 05:18:00,24.3,17.5,30.10,West,277,2.0,5.0,75,0.00,,---,0.00,VWS V14.00,2013-01-02 10:18:00,
2013-01-02 05:19:00,24.3,17.5,30.10,West,277,2.0,5.0,75,0.00,,---,0.00,VWS V14.00,2013-01-02 10:19:00,
2013-01-02 05:21:00,24.3,17.5,30.10,West,277,4.0,5.0,75,0.00,,---,0.00,VWS V14.00,2013-01-02 10:21:00,
2013-01-02 05:23:00,24.3,17.5,30.10,WNW,288,4.0,6.0,75,0.00,,---,0.00,VWS V14.00,2013-01-02 10:23:00,
2013-01-02 05:25:00,24.3,17.5,30.10,WNW,286,3.0,6.0,75,0.00,,---,0.00,VWS V14.00,2013-01-02 10:25:00,
2013-01-02 05:27:00,24.3,17.8,30.10,WNW,286,1.0,6.0,76,0.00,,---,0.00,VWS V14.00,2013-01-02 10:27:00,
2013-01-02 05:29:00,24.3,17.8,30.10,WNW,286,0.0,3.0,76,0.00,,---,0.00,VWS V14.00,2013-01-02 10:29:00,
2013-01-02 05:31:00,24.3,17.8,30.10,WNW,286,3.0,4.0,76,0.00,,---,0.00,VWS V14.00,2013-01-02 10:31:00,
2013-01-02 05:32:00,24.3,17.8,30.10,West,271,5.0,5.0,76,0.00,,---,0.00,VWS V14.00,2013-01-02 10:32:00,
2013-01-02 05:35:00,24.3,17.8,30.10,West,272,2.0,5.0,76,0.00,,---,0.00,VWS V14.00,2013-01-02 10:35:00,
2013-01-02 05:36:00,24.3,17.8,30.10,West,265,0.0,5.0,76,0.00,,---,0.00,VWS V14.00,2013-01-02 10:36:00,
2013-01-02 05:37:00,24.3,17.8,30.10,West,265,0.0,5.0,76,0.00,,---,0.00,VWS V14.00,2013-01-02 10:37:00,
2013-01-02 05:41:00,24.3,17.8,30.10,West,272,3.0,11.0,76,0.00,,---,0.00,VWS V14.00,2013-01-02 10:41:00,
2013-01-02 05:42:00,24.3,17.8,30.10,West,269,1.0,11.0,76,0.00,,---,0.00,VWS V14.00,2013-01-02 10:42:00,
2013-01-02 05:44:00,24.3,17.8,30.10,West,271,2.0,11.0,76,0.00,,---,0.00,VWS V14.00,2013-01-02 10:44:00,
2013-01-02 05:46:00,24.3,17.8,30.10,West,271,2.0,11.0,76,0.00,,---,0.00,VWS V14.00,2013-01-02 10:46:00,
2013-01-02 05:47:00,24.3,17.8,30.10,West,271,3.0,11.0,76,0.00,,---,0.00,VWS V14.00,2013-01-02 10:47:00,
2013-01-02 05:49:00,24.3,17.8,30.10,West,273,2.0,11.0,76,0.00,,---,0.00,VWS V14.00,2013-01-02 10:49:00,
2013-01-02 05:51:00,24.3,17.8,30.10,West,273,3.0,11.0,76,0.00,,---,0.00,VWS V14.00,2013-01-02 10:51:00,
2013-01-02 05:53:00,24.3,17.8,30.10,West,273,3.0,11.0,76,0.00,,---,0.00,VWS V14.00,2013-01-02 10:53:00,
2013-01-02 05:55:00,24.3,17.8,30.11,West,273,3.0,11.0,76,0.00,,---,0.00,VWS V14.00,2013-01-02 10:55:00,
2013-01-02 05:56:00,24.4,17.9,30.11,West,273,4.0,11.0,76,0.00,,---,0.00,VWS V14.00,2013-01-02 10:56:00,
2013-01-02 05:58:00,24.4,17.9,30.11,West,273,4.0,11.0,76,0.00,,---,0.00,VWS V14.00,2013-01-02 10:58:00,
2013-01-02 06:00:00,24.4,17.9,30.11,West,273,2.0,6.0,76,0.00,,---,0.00,VWS V14.00,2013-01-02 11:00:00,
2013-01-02 06:01:00,24.3,18.1,30.11,West,269,4.0,6.0,77,0.00,,---,0.00,VWS V14.00,2013-01-02 11:01:00,
2013-01-02 06:02:00,24.4,18.2,30.11,West,269,2.0,7.0,77,0.00,,---,0.00,VWS V14.00,2013-01-02 11:02:00,
2013-01-02 06:04:00,24.4,18.2,30.11,West,273,7.0,8.0,77,0.00,,---,0.00,VWS V14.00,2013-01-02 11:04:00,
2013-01-02 06:05:00,24.4,18.2,30.11,West,273,3.0,8.0,77,0.00,,---,0.00,VWS V14.00,2013-01-02 11:05:00,
2013-01-02 06:08:00,24.4,18.2,30.11,West,272,4.0,8.0,77,0.00,,---,0.00,VWS V14.00,2013-01-02 11:08:00,
2013-01-02 06:09:00,24.4,18.2,30.11,West,272,1.0,8.0,77,0.00,,---,0.00,VWS V14.00,2013-01-02 11:09:00,
2013-01-02 06:10:00,24.3,18.1,30.11,West,271,4.0,8.0,77,0.00,,---,0.00,VWS V14.00,2013-01-02 11:10:00,
2013-01-02 06:13:00,24.3,18.1,30.11,WSW,250,1.0,8.0,77,0.00,,---,0.00,VWS V14.00,2013-01-02 11:13:00,
2013-01-02 06:15:00,24.4,18.2,30.11,West,265,4.0,8.0,77,0.00,,---,0.00,VWS V14.00,2013-01-02 11:15:00,
2013-01-02 06:16:00,24.4,18.2,30.11,West,269,6.0,8.0,77,0.00,,---,0.00,VWS V14.00,2013-01-02 11:16:00,
2013-01-02 06:18:00,24.3,18.1,30.11,West,273,7.0,10.0,77,0.00,,---,0.00,VWS V14.00,2013-01-02 11:18:00,
2013-01-02 06:21:00,24.3,18.1,30.11,West,271,3.0,10.0,77,0.00,,---,0.00,VWS V14.00,2013-01-02 11:21:00,
2013-01-02 06:23:00,24.3,18.1,30.11,West,271,1.0,10.0,77,0.00,,---,0.00,VWS V14.00,2013-01-02 11:23:00,
2013-01-02 06:26:00,24.3,18.1,30.11,West,269,2.0,10.0,77,0.00,,---,0.00,VWS V14.00,2013-01-02 11:26:00,
2013-01-02 06:27:00,24.3,18.1,30.11,West,270,2.0,10.0,77,0.00,,---,0.00,VWS V14.00,2013-01-02 11:27:00,
2013-01-02 06:28:00,24.3,18.1,30.11,West,269,2.0,2.0,77,0.00,,---,0.00,VWS V14.00,2013-01-02 11:28:00,
2013-01-02 06:32:00,24.3,18.1,30.11,WSW,254,4.0,7.0,77,0.00,,---,0.00,VWS V14.00,2013-01-02 11:32:00,
2013-01-02 06:33:00,24.3,18.1,30.11,West,259,5.0,7.0,77,0.00,,---,0.00,VWS V14.00,2013-01-02 11:33:00,
2013-01-02 06:34:00,24.3,18.1,30.11,West,265,3.0,7.0,77,0.00,,---,0.00,VWS V14.00,2013-01-02 11:34:00,
2013-01-02 06:39:00,24.3,18.1,30.11,West,260,5.0,7.0,77,0.00,,---,0.00,VWS V14.00,2013-01-02 11:39:00,
2013-01-02 06:41:00,24.2,18.0,30.11,West,272,4.0,10.0,77,0.00,,---,0.00,VWS V14.00,2013-01-02 11:41:00,
2013-01-02 06:42:00,24.2,18.3,30.10,West,271,2.0,10.0,78,0.00,,---,0.00,VWS V14.00,2013-01-02 11:42:00,
2013-01-02 06:44:00,24.2,18.3,30.11,West,271,0.0,10.0,78,0.00,,---,0.00,VWS V14.00,2013-01-02 11:44:00,
2013-01-02 06:46:00,24.2,18.3,30.11,West,271,2.0,10.0,78,0.00,,---,0.00,VWS V14.00,2013-01-02 11:46:00,
2013-01-02 06:48:00,24.2,18.3,30.11,West,273,6.0,10.0,78,0.00,,---,0.00,VWS V14.00,2013-01-02 11:48:00,
2013-01-02 06:50:00,24.2,18.3,30.11,West,276,3.0,10.0,78,0.00,,---,0.00,VWS V14.00,2013-01-02 11:50:00,
2013-01-02 06:51:00,24.2,18.3,30.11,West,276,1.0,10.0,78,0.00,,---,0.00,VWS V14.00,2013-01-02 11:51:00,
2013-01-02 06:53:00,24.2,18.3,30.11,West,276,4.0,10.0,78,0.00,,---,0.00,VWS V14.00,2013-01-02 11:53:00,
2013-01-02 06:56:00,24.2,18.3,30.11,West,275,4.0,10.0,78,0.00,,---,0.00,VWS V14.00,2013-01-02 11:56:00,
2013-01-02 06:57:00,24.2,18.3,30.11,West,275,2.0,10.0,78,0.00,,---,0.00,VWS V14.00,2013-01-02 11:57:00,
2013-01-02 06:59:00,24.2,18.3,30.11,West,275,2.0,4.0,78,0.00,,---,0.00,VWS V14.00,2013-01-02 11:59:00,
2013-01-02 07:02:00,24.2,18.3,30.11,West,274,4.0,5.0,78,0.00,,---,0.00,VWS V14.00,2013-01-02 12:02:00,
2013-01-02 07:03:00,24.2,18.3,30.11,West,274,5.0,5.0,78,0.00,,---,0.00,VWS V14.00,2013-01-02 12:03:00,
2013-01-02 07:04:00,24.2,18.3,30.12,West,265,3.0,6.0,78,0.00,,---,0.00,VWS V14.00,2013-01-02 12:04:00,
2013-01-02 07:08:00,24.2,18.6,30.11,West,265,0.0,6.0,79,0.00,,---,0.00,VWS V14.00,2013-01-02 12:08:00,
2013-01-02 07:09:00,24.2,18.6,30.12,West,268,1.0,6.0,79,0.00,,---,0.00,VWS V14.00,2013-01-02 12:09:00,
2013-01-02 07:11:00,24.2,18.6,30.11,West,268,3.0,6.0,79,0.00,,---,0.00,VWS V14.00,2013-01-02 12:11:00,
2013-01-02 07:13:00,24.3,18.7,30.12,West,269,0.0,6.0,79,0.00,,---,0.00,VWS V14.00,2013-01-02 12:13:00,
2013-01-02 07:14:00,24.3,18.7,30.11,West,269,0.0,6.0,79,0.00,,---,0.00,VWS V14.00,2013-01-02 12:14:00,
2013-01-02 07:16:00,24.3,18.7,30.11,West,269,0.0,6.0,79,0.00,,---,0.00,VWS V14.00,2013-01-02 12:16:00,
2013-01-02 07:18:00,24.3,18.7,30.12,West,269,3.0,6.0,79,0.00,,---,0.00,VWS V14.00,2013-01-02 12:18:00,
2013-01-02 07:19:00,24.3,18.7,30.12,West,269,0.0,6.0,79,0.00,,---,0.00,VWS V14.00,2013-01-02 12:19:00,
2013-01-02 07:21:00,24.3,18.7,30.12,West,269,2.0,6.0,79,0.00,,---,0.00,VWS V14.00,2013-01-02 12:21:00,
2013-01-02 07:23:00,24.4,18.8,30.12,West,280,2.0,6.0,79,0.00,,---,0.00,VWS V14.00,2013-01-02 12:23:00,
2013-01-02 07:24:00,24.3,18.7,30.12,West,280,2.0,6.0,79,0.00,,---,0.00,VWS V14.00,2013-01-02 12:24:00,
2013-01-02 07:25:00,24.4,18.8,30.12,West,280,1.0,6.0,79,0.00,,---,0.00,VWS V14.00,2013-01-02 12:25:00,
2013-01-02 07:26:00,24.3,18.7,30.12,West,280,3.0,6.0,79,0.00,,---,0.00,VWS V14.00,2013-01-02 12:26:00,
2013-01-02 07:29:00,24.4,18.8,30.12,West,281,3.0,5.0,79,0.00,,---,0.00,VWS V14.00,2013-01-02 12:29:00,
2013-01-02 07:31:00,24.4,18.8,30.12,West,277,2.0,5.0,79,0.00,,---,0.00,VWS V14.00,2013-01-02 12:31:00,
2013-01-02 07:32:00,24.4,18.8,30.12,West,277,5.0,9.0,79,0.00,,---,0.00,VWS V14.00,2013-01-02 12:32:00,
2013-01-02 07:34:00,24.4,19.1,30.12,West,280,0.0,9.0,80,0.00,,---,0.00,VWS V14.00,2013-01-02 12:34:00,
2013-01-02 07:36:00,24.5,19.2,30.13,WNW,284,5.0,9.0,80,0.00,,---,0.00,VWS V14.00,2013-01-02 12:36:00,
2013-01-02 07:40:00,24.5,19.2,30.12,WNW,284,2.0,9.0,80,0.00,,---,0.00,VWS V14.00,2013-01-02 12:40:00,
2013-01-02 07:41:00,24.5,19.2,30.12,WNW,284,0.0,9.0,80,0.00,,---,0.00,VWS V14.00,2013-01-02 12:41:00,
2013-01-02 07:44:00,24.5,19.2,30.12,WNW,292,2.0,9.0,80,0.00,,---,0.00,VWS V14.00,2013-01-02 12:44:00,
2013-01-02 07:45:00,24.5,19.2,30.12,WNW,292,1.0,9.0,80,0.00,,---,0.00,VWS V14.00,2013-01-02 12:45:00,
2013-01-02 07:47:00,24.6,19.3,30.12,WNW,292,5.0,9.0,80,0.00,,---,0.00,VWS V14.00,2013-01-02 12:47:00,
2013-01-02 07:48:00,24.6,19.3,30.12,WNW,292,3.0,9.0,80,0.00,,---,0.00,VWS V14.00,2013-01-02 12:48:00,
2013-01-02 07:49:00,24.6,19.3,30.13,WNW,292,5.0,9.0,80,0.00,,---,0.00,VWS V14.00,2013-01-02 12:49:00,
2013-01-02 07:51:00,24.6,19.3,30.12,NW,306,4.0,9.0,80,0.00,,---,0.00,VWS V14.00,2013-01-02 12:51:00,
2013-01-02 07:52:00,24.6,19.3,30.12,WNW,302,4.0,9.0,80,0.00,,---,0.00,VWS V14.00,2013-01-02 12:52:00,
2013-01-02 07:53:00,24.6,19.3,30.12,WNW,302,4.0,9.0,80,0.00,,---,0.00,VWS V14.00,2013-01-02 12:53:00,
2013-01-02 07:54:00,24.6,19.3,30.12,WNW,302,1.0,9.0,80,0.00,,---,0.00,VWS V14.00,2013-01-02 12:54:00,
2013-01-02 07:58:00,24.6,19.3,30.12,NW,311,3.0,9.0,80,0.00,,---,0.00,VWS V14.00,2013-01-02 12:58:00,
2013-01-02 07:59:00,24.6,19.3,30.12,NW,311,0.0,5.0,80,0.00,,---,0.00,VWS V14.00,2013-01-02 12:59:00,
2013-01-02 08:00:00,24.6,19.3,30.12,NW,311,0.0,5.0,80,0.00,,---,0.00,VWS V14.00,2013-01-02 13:00:00,
2013-01-02 08:04:00,24.6,19.3,30.13,NW,311,2.0,5.0,80,0.00,,---,0.00,VWS V14.00,2013-01-02 13:04:00,
2013-01-02 08:05:00,24.7,19.4,30.13,NW,311,3.0,5.0,80,0.00,,---,0.00,VWS V14.00,2013-01-02 13:05:00,
2013-01-02 08:07:00,24.6,19.3,30.13,West,281,5.0,7.0,80,0.00,,---,0.00,VWS V14.00,2013-01-02 13:07:00,
2013-01-02 08:10:00,24.7,19.4,30.13,WNW,291,4.0,7.0,80,0.00,,---,0.00,VWS V14.00,2013-01-02 13:10:00,
2013-01-02 08:11:00,24.6,19.3,30.13,WNW,299,0.0,7.0,80,0.00,,---,0.00,VWS V14.00,2013-01-02 13:11:00,
2013-01-02 08:13:00,24.6,19.3,30.13,NW,312,2.0,7.0,80,0.00,,---,0.00,VWS V14.00,2013-01-02 13:13:00,
2013-01-02 08:15:00,24.6,19.3,30.12,NW,304,4.0,7.0,80,0.00,,---,0.00,VWS V14.00,2013-01-02 13:15:00,
2013-01-02 08:17:00,24.6,19.3,30.12,NW,304,0.0,7.0,80,0.00,,---,0.00,VWS V14.00,2013-01-02 13:17:00,
2013-01-02 08:18:00,24.7,19.4,30.12,NW,304,0.0,7.0,80,0.00,,---,0.00,VWS V14.00,2013-01-02 13:18:00,
2013-01-02 08:19:00,24.6,19.3,30.12,NW,304,2.0,7.0,80,0.00,,---,0.00,VWS V14.00,2013-01-02 13:19:00,
2013-01-02 08:22:00,24.6,19.3,30.12,NW,311,3.0,7.0,80,0.00,,---,0.00,VWS V14.00,2013-01-02 13:22:00,
2013-01-02 08:23:00,24.6,19.3,30.12,NW,312,4.0,7.0,80,0.00,,---,0.00,VWS V14.00,2013-01-02 13:23:00,
2013-01-02 08:25:00,24.6,19.3,30.12,NW,311,2.0,7.0,80,0.00,,---,0.00,VWS V14.00,2013-01-02 13:25:00,
2013-01-02 08:28:00,24.6,19.3,30.12,NW,306,5.0,6.0,80,0.00,,---,0.00,VWS V14.00,2013-01-02 13:28:00,
2013-01-02 08:29:00,24.6,19.3,30.12,NW,304,4.0,6.0,80,0.00,,---,0.00,VWS V14.00,2013-01-02 13:29:00,
2013-01-02 08:31:00,24.6,19.3,30.12,WNW,288,2.0,6.0,80,0.00,,---,0.00,VWS V14.00,2013-01-02 13:31:00,
2013-01-02 08:34:00,24.6,19.3,30.12,WNW,290,2.0,6.0,80,0.00,,---,0.00,VWS V14.00,2013-01-02 13:34:00,
2013-01-02 08:35:00,24.6,19.3,30.12,WNW,291,2.0,6.0,80,0.00,,---,0.00,VWS V14.00,2013-01-02 13:35:00,
2013-01-02 08:37:00,24.7,19.4,30.12,WNW,295,6.0,9.0,80,0.00,,---,0.00,VWS V14.00,2013-01-02 13:37:00,
2013-01-02 08:39:00,24.7,19.4,30.12,WNW,298,2.0,9.0,80,0.00,,---,0.00,VWS V14.00,2013-01-02 13:39:00,
2013-01-02 08:40:00,24.7,19.4,30.12,WNW,298,6.0,9.0,80,0.00,,---,0.00,VWS V14.00,2013-01-02 13:40:00,
2013-01-02 08:41:00,24.7,19.4,30.12,WNW,299,3.0,9.0,80,0.00,,---,0.00,VWS V14.00,2013-01-02 13:41:00,
2013-01-02 08:43:00,24.7,19.4,30.12,WNW,299,0.0,9.0,80,0.00,,---,0.00,VWS V14.00,2013-01-02 13:43:00,
2013-01-02 08:44:00,24.7,19.4,30.12,NW,315,3.0,9.0,80,0.00,,---,0.00,VWS V14.00,2013-01-02 13:44:00,
2013-01-02 08:47:00,24.7,19.4,30.12,NW,315,0.0,9.0,80,0.00,,---,0.00,VWS V14.00,2013-01-02 13:47:00,
2013-01-02 08:48:00,24.7,19.4,30.12,NW,315,0.0,9.0,80,0.00,,---,0.00,VWS V14.00,2013-01-02 13:48:00,
2013-01-02 08:49:00,24.7,19.4,30.13,NW,304,5.0,9.0,80,0.00,,---,0.00,VWS V14.00,2013-01-02 13:49:00,
2013-01-02 08:50:00,24.7,19.4,30.12,WNW,282,4.0,9.0,80,0.00,,---,0.00,VWS V14.00,2013-01-02 13:50:00,
2013-01-02 08:54:00,24.8,19.5,30.13,NW,304,3.0,9.0,80,0.00,,---,0.00,VWS V14.00,2013-01-02 13:54:00,
2013-01-02 08:55:00,24.8,19.5,30.13,WNW,303,1.0,9.0,80,0.00,,---,0.00,VWS V14.00,2013-01-02 13:55:00,
2013-01-02 08:56:00,24.9,19.6,30.13,NW,304,0.0,9.0,80,0.00,,---,0.00,VWS V14.00,2013-01-02 13:56:00,
2013-01-02 08:57:00,24.9,19.6,30.13,NW,304,0.0,9.0,80,0.00,,---,0.00,VWS V14.00,2013-01-02 13:57:00,
2013-01-02 08:59:00,25.0,19.7,30.13,NW,304,1.0,3.0,80,0.00,,---,0.00,VWS V14.00,2013-01-02 13:59:00,
2013-01-02 09:00:00,25.0,19.7,30.13,NW,304,0.0,3.0,80,0.00,,---,0.00,VWS V14.00,2013-01-02 14:00:00,
2013-01-02 09:02:00,25.0,19.7,30.13,NW,304,0.0,3.0,80,0.00,,---,0.00,VWS V14.00,2013-01-02 14:02:00,
2013-01-02 09:05:00,25.1,19.8,30.14,NW,304,0.0,4.0,80,0.00,,---,0.00,VWS V14.00,2013-01-02 14:05:00,
2013-01-02 09:07:00,25.1,19.8,30.14,NW,304,2.0,5.0,80,0.00,,---,0.00,VWS V14.00,2013-01-02 14:07:00,
2013-01-02 09:08:00,25.1,19.8,30.14,NW,304,2.0,5.0,80,0.00,,---,0.00,VWS V14.00,2013-01-02 14:08:00,
2013-01-02 09:12:00,25.2,19.9,30.14,NW,304,4.0,5.0,80,0.00,,---,0.00,VWS V14.00,2013-01-02 14:12:00,
2013-01-02 09:13:00,25.2,19.9,30.14,NW,304,4.0,5.0,80,0.00,,---,0.00,VWS V14.00,2013-01-02 14:13:00,
2013-01-02 09:14:00,25.2,19.9,30.14,NW,305,3.0,5.0,80,0.00,,---,0.00,VWS V14.00,2013-01-02 14:14:00,
2013-01-02 09:15:00,25.2,19.9,30.14,NW,305,3.0,5.0,80,0.00,,---,0.00,VWS V14.00,2013-01-02 14:15:00,
2013-01-02 09:18:00,25.2,19.9,30.13,NW,306,0.0,5.0,80,0.00,,---,0.00,VWS V14.00,2013-01-02 14:18:00,
2013-01-02 09:19:00,25.2,19.9,30.13,NW,304,4.0,6.0,80,0.00,,---,0.00,VWS V14.00,2013-01-02 14:19:00,
2013-01-02 09:20:00,25.2,19.9,30.14,NW,304,3.0,6.0,80,0.00,,---,0.00,VWS V14.00,2013-01-02 14:20:00,
2013-01-02 09:21:00,25.3,20.0,30.14,NW,304,2.0,6.0,80,0.00,,---,0.00,VWS V14.00,2013-01-02 14:21:00,
2013-01-02 09:23:00,25.3,20.0,30.14,WNW,298,4.0,6.0,80,0.00,,---,0.00,VWS V14.00,2013-01-02 14:23:00,
2013-01-02 09:25:00,25.3,20.0,30.14,WNW,299,5.0,6.0,80,0.00,,---,0.00,VWS V14.00,2013-01-02 14:25:00,
2013-01-02 09:27:00,25.4,20.1,30.14,WNW,299,3.0,6.0,80,0.00,,---,0.00,VWS V14.00,2013-01-02 14:27:00,
2013-01-02 09:30:00,25.4,20.1,30.14,WNW,299,5.0,6.0,80,0.00,,---,0.00,VWS V14.00,2013-01-02 14:30:00,
2013-01-02 09:31:00,25.4,20.1,30.14,WNW,299,2.0,6.0,80,0.00,,---,0.00,VWS V14.00,2013-01-02 14:31:00,
2013-01-02 09:32:00,25.4,20.1,30.14,WNW,299,3.0,6.0,80,0.00,,---,0.00,VWS V14.00,2013-01-02 14:32:00,
2013-01-02 09:33:00,25.4,20.1,30.14,WNW,300,3.0,6.0,80,0.00,,---,0.00,VWS V14.00,2013-01-02 14:33:00,
2013-01-02 09:37:00,25.5,20.2,30.14,WNW,288,1.0,6.0,80,0.00,,---,0.00,VWS V14.00,2013-01-02 14:37:00,
2013-01-02 09:38:00,25.6,20.3,30.14,WNW,288,1.0,6.0,80,0.00,,---,0.00,VWS V14.00,2013-01-02 14:38:00,
2013-01-02 09:39:00,25.6,20.3,30.15,WNW,288,1.0,6.0,80,0.00,,---,0.00,VWS V14.00,2013-01-02 14:39:00,
2013-01-02 09:43:00,25.6,20.3,30.15,West,279,5.0,6.0,80,0.00,,---,0.00,VWS V14.00,2013-01-02 14:43:00,
2013-01-02 09:44:00,25.6,20.3,30.15,West,279,4.0,6.0,80,0.00,,---,0.00,VWS V14.00,2013-01-02 14:44:00,
2013-01-02 09:46:00,25.7,20.4,30.15,West,278,2.0,6.0,80,0.00,,---,0.00,VWS V14.00,2013-01-02 14:46:00,
2013-01-02 09:49:00,25.7,20.4,30.15,West,274,2.0,7.0,80,0.00,,---,0.00,VWS V14.00,2013-01-02 14:49:00,
2013-01-02 09:50:00,25.7,20.4,30.15,West,274,6.0,7.0,80,0.00,,---,0.00,VWS V14.00,2013-01-02 14:50:00,
2013-01-02 09:51:00,25.7,20.4,30.16,West,274,1.0,7.0,80,0.00,,---,0.00,VWS V14.00,2013-01-02 14:51:00,
2013-01-02 09:52:00,25.7,20.4,30.16,West,274,1.0,7.0,80,0.00,,---,0.00,VWS V14.00,2013-01-02 14:52:00,
2013-01-02 09:55:00,25.7,20.4,30.15,West,259,6.0,7.0,80,0.00,,---,0.00,VWS V14.00,2013-01-02 14:55:00,
2013-01-02 09:56:00,25.7,20.4,30.15,West,260,2.0,7.0,80,0.00,,---,0.00,VWS V14.00,2013-01-02 14:56:00,
2013-01-02 09:57:00,25.6,20.3,30.15,West,260,2.0,7.0,80,0.00,,---,0.00,VWS V14.00,2013-01-02 14:57:00,
2013-01-02 10:00:00,25.6,20.3,30.16,West,270,3.0,4.0,80,0.00,,---,0.00,VWS V14.00,2013-01-02 15:00:00,
2013-01-02 10:01:00,25.6,20.3,30.15,West,271,3.0,4.0,80,0.00,,---,0.00,VWS V14.00,2013-01-02 15:01:00,
2013-01-02 10:03:00,25.6,20.3,30.16,West,271,3.0,5.0,80,0.00,,---,0.00,VWS V14.00,2013-01-02 15:03:00,
2013-01-02 10:04:00,25.6,20.3,30.16,West,271,3.0,6.0,80,0.00,,---,0.00,VWS V14.00,2013-01-02 15:04:00,
2013-01-02 10:05:00,25.6,20.3,30.16,West,271,0.0,6.0,80,0.00,,---,0.00,VWS V14.00,2013-01-02 15:05:00,
2013-01-02 10:08:00,25.7,20.4,30.16,West,271,6.0,7.0,80,0.00,,---,0.00,VWS V14.00,2013-01-02 15:08:00,
2013-01-02 10:09:00,25.7,20.4,30.16,West,271,4.0,7.0,80,0.00,,---,0.00,VWS V14.00,2013-01-02 15:09:00,
2013-01-02 10:10:00,25.7,20.4,30.16,West,269,3.0,7.0,80,0.00,,---,0.00,VWS V14.00,2013-01-02 15:10:00,
2013-01-02 10:11:00,25.7,20.4,30.16,West,269,5.0,7.0,80,0.00,,---,0.00,VWS V14.00,2013-01-02 15:11:00,
2013-01-02 10:14:00,25.7,20.4,30.17,West,269,2.0,7.0,80,0.00,,---,0.00,VWS V14.00,2013-01-02 15:14:00,
2013-01-02 10:17:00,25.8,20.5,30.16,West,263,1.0,7.0,80,0.00,,---,0.00,VWS V14.00,2013-01-02 15:17:00,
2013-01-02 10:18:00,25.7,20.4,30.16,West,264,5.0,7.0,80,0.00,,---,0.00,VWS V14.00,2013-01-02 15:18:00,
2013-01-02 10:19:00,25.7,20.4,30.16,West,269,2.0,7.0,80,0.00,,---,0.00,VWS V14.00,2013-01-02 15:19:00,
2013-01-02 10:20:00,25.7,20.4,30.16,West,269,2.0,7.0,80,0.00,,---,0.00,VWS V14.00,2013-01-02 15:20:00,
2013-01-02 10:23:00,25.7,20.4,30.16,West,269,0.0,7.0,80,0.00,,---,0.00,VWS V14.00,2013-01-02 15:23:00,
2013-01-02 10:26:00,25.7,20.4,30.16,West,269,4.0,7.0,80,0.00,,---,0.00,VWS V14.00,2013-01-02 15:26:00,
2013-01-02 10:28:00,25.7,20.7,30.16,West,269,3.0,7.0,81,0.00,,---,0.00,VWS V14.00,2013-01-02 15:28:00,
2013-01-02 10:31:00,25.7,20.7,30.16,West,267,2.0,5.0,81,0.00,,---,0.00,VWS V14.00,2013-01-02 15:31:00,
2013-01-02 10:32:00,25.8,20.8,30.16,West,267,2.0,5.0,81,0.00,,---,0.00,VWS V14.00,2013-01-02 15:32:00,
2013-01-02 10:33:00,25.8,20.8,30.16,West,267,3.0,5.0,81,0.00,,---,0.00,VWS V14.00,2013-01-02 15:33:00,
2013-01-02 10:34:00,25.8,20.8,30.16,West,265,3.0,5.0,81,0.00,,---,0.00,VWS V14.00,2013-01-02 15:34:00,
2013-01-02 10:37:00,25.8,20.8,30.17,West,265,4.0,5.0,81,0.00,,---,0.00,VWS V14.00,2013-01-02 15:37:00,
2013-01-02 10:39:00,25.9,20.9,30.16,West,265,4.0,5.0,81,0.00,,---,0.00,VWS V14.00,2013-01-02 15:39:00,
2013-01-02 10:41:00,25.9,20.9,30.16,West,265,3.0,5.0,81,0.00,,---,0.00,VWS V14.00,2013-01-02 15:41:00,
2013-01-02 10:42:00,25.9,20.9,30.16,West,265,2.0,5.0,81,0.00,,---,0.00,VWS V14.00,2013-01-02 15:42:00,
2013-01-02 10:44:00,26.0,21.0,30.16,West,265,0.0,5.0,81,0.00,,---,0.00,VWS V14.00,2013-01-02 15:44:00,
2013-01-02 10:45:00,26.0,21.0,30.16,West,265,2.0,5.0,81,0.00,,---,0.00,VWS V14.00,2013-01-02 15:45:00,
2013-01-02 10:47:00,26.0,21.0,30.16,West,265,4.0,5.0,81,0.00,,---,0.00,VWS V14.00,2013-01-02 15:47:00,
2013-01-02 10:50:00,26.0,21.0,30.17,West,265,4.0,5.0,81,0.00,,---,0.00,VWS V14.00,2013-01-02 15:50:00,
2013-01-02 10:52:00,26.0,21.0,30.17,West,267,2.0,7.0,81,0.00,,---,0.00,VWS V14.00,2013-01-02 15:52:00,
2013-01-02 10:55:00,26.0,21.0,30.17,West,267,1.0,7.0,81,0.00,,---,0.00,VWS V14.00,2013-01-02 15:55:00,
2013-01-02 10:57:00,26.1,21.1,30.17,West,267,4.0,7.0,81,0.00,,---,0.00,VWS V14.00,2013-01-02 15:57:00,
2013-01-02 10:58:00,26.1,21.1,30.17,West,267,2.0,3.0,81,0.00,,---,0.00,VWS V14.00,2013-01-02 15:58:00,
2013-01-02 10:59:00,26.1,21.1,30.17,West,267,3.0,3.0,81,0.00,,---,0.00,VWS V14.00,2013-01-02 15:59:00,
2013-01-02 11:01:00,26.1,21.4,30.17,West,268,4.0,5.0,82,0.00,,---,0.00,VWS V14.00,2013-01-02 16:01:00,
2013-01-02 11:02:00,26.1,21.4,30.17,West,267,4.0,5.0,82,0.00,,---,0.00,VWS V14.00,2013-01-02 16:02:00,
2013-01-02 11:04:00,26.1,21.1,30.17,West,268,1.0,5.0,81,0.00,,---,0.00,VWS V14.00,2013-01-02 16:04:00,
2013-01-02 11:06:00,26.1,21.1,30.17,West,267,1.0,5.0,81,0.00,,---,0.00,VWS V14.00,2013-01-02 16:06:00,
2013-01-02 11:07:00,26.2,21.5,30.17,West,268,6.0,6.0,82,0.00,,---,0.00,VWS V14.00,2013-01-02 16:07:00,
2013-01-02 11:11:00,26.2,21.5,30.16,West,268,5.0,7.0,82,0.00,,---,0.00,VWS V14.00,2013-01-02 16:11:00,
2013-01-02 11:12:00,26.1,21.4,30.16,West,269,5.0,7.0,82,0.00,,---,0.00,VWS V14.00,2013-01-02 16:12:00,
2013-01-02 11:13:00,26.2,21.2,30.16,West,269,2.0,7.0,81,0.00,,---,0.00,VWS V14.00,2013-01-02 16:13:00,
2013-01-02 11:14:00,26.2,21.5,30.16,West,269,2.0,7.0,82,0.00,,---,0.00,VWS V14.00,2013-01-02 16:14:00,
2013-01-02 11:17:00,26.2,21.5,30.16,West,269,3.0,7.0,82,0.00,,---,0.00,VWS V14.00,2013-01-02 16:17:00,
2013-01-02 11:18:00,26.2,21.5,30.16,West,269,2.0,7.0,82,0.00,,---,0.00,VWS V14.00,2013-01-02 16:18:00,
2013-01-02 11:19:00,26.2,21.5,30.16,West,269,0.0,7.0,82,0.00,,---,0.00,VWS V14.00,2013-01-02 16:19:00,
2013-01-02 11:20:00,26.2,21.5,30.16,West,269,0.0,7.0,82,0.00,,---,0.00,VWS V14.00,2013-01-02 16:20:00,
2013-01-02 11:25:00,26.2,21.5,30.16,West,269,2.0,7.0,82,0.00,,---,0.00,VWS V14.00,2013-01-02 16:25:00,
2013-01-02 11:26:00,26.3,21.6,30.16,West,268,3.0,7.0,82,0.00,,---,0.00,VWS V14.00,2013-01-02 16:26:00,
2013-01-02 11:28:00,26.2,21.2,30.16,WSW,256,3.0,7.0,81,0.00,,---,0.00,VWS V14.00,2013-01-02 16:28:00,
2013-01-02 11:30:00,26.2,21.2,30.16,West,259,5.0,5.0,81,0.00,,---,0.00,VWS V14.00,2013-01-02 16:30:00,
2013-01-02 11:31:00,26.2,21.2,30.16,West,260,3.0,5.0,81,0.00,,---,0.00,VWS V14.00,2013-01-02 16:31:00,
2013-01-02 11:33:00,26.2,21.2,30.16,West,261,5.0,5.0,81,0.00,,---,0.00,VWS V14.00,2013-01-02 16:33:00,
2013-01-02 11:34:00,26.2,21.2,30.16,West,262,1.0,5.0,81,0.00,,---,0.00,VWS V14.00,2013-01-02 16:34:00,
2013-01-02 11:37:00,26.2,21.2,30.16,West,262,2.0,6.0,81,0.00,,---,0.00,VWS V14.00,2013-01-02 16:37:00,
2013-01-02 11:38:00,26.2,21.2,30.16,West,262,2.0,6.0,81,0.00,,---,0.00,VWS V14.00,2013-01-02 16:38:00,
2013-01-02 11:40:00,26.2,21.2,30.16,West,259,2.0,6.0,81,0.00,,---,0.00,VWS V14.00,2013-01-02 16:40:00,
2013-01-02 11:43:00,26.2,21.2,30.16,WSW,257,0.0,6.0,81,0.00,,---,0.00,VWS V14.00,2013-01-02 16:43:00,
2013-01-02 11:44:00,26.2,21.2,30.16,West,259,3.0,6.0,81,0.00,,---,0.00,VWS V14.00,2013-01-02 16:44:00,
2013-01-02 11:45:00,26.2,21.2,30.16,West,259,2.0,6.0,81,0.00,,---,0.00,VWS V14.00,2013-01-02 16:45:00,
2013-01-02 11:50:00,26.2,21.2,30.16,West,261,2.0,6.0,81,0.00,,---,0.00,VWS V14.00,2013-01-02 16:50:00,
2013-01-02 11:51:00,26.2,21.5,30.16,West,261,3.0,6.0,82,0.00,,---,0.00,VWS V14.00,2013-01-02 16:51:00,
2013-01-02 11:52:00,26.2,21.5,30.16,West,261,4.0,6.0,82,0.00,,---,0.00,VWS V14.00,2013-01-02 16:52:00,
2013-01-02 11:56:00,26.3,21.6,30.16,West,262,4.0,6.0,82,0.00,,---,0.00,VWS V14.00,2013-01-02 16:56:00,
2013-01-02 11:57:00,26.3,21.6,30.16,West,262,1.0,6.0,82,0.00,,---,0.00,VWS V14.00,2013-01-02 16:57:00,
2013-01-02 11:58:00,26.3,21.6,30.16,West,261,4.0,5.0,82,0.00,,---,0.00,VWS V14.00,2013-01-02 16:58:00,
2013-01-02 12:01:00,26.3,21.6,30.15,West,270,7.0,7.0,82,0.00,,---,0.00,VWS V14.00,2013-01-02 17:01:00,
2013-01-02 12:02:00,26.3,21.6,30.15,West,260,0.0,7.0,82,0.00,,---,0.00,VWS V14.00,2013-01-02 17:02:00,
2013-01-02 12:03:00,26.2,21.2,30.15,West,261,0.0,7.0,81,0.00,,---,0.00,VWS V14.00,2013-01-02 17:03:00,
2013-01-02 12:05:00,26.2,21.2,30.15,WSW,248,0.0,7.0,81,0.00,,---,0.00,VWS V14.00,2013-01-02 17:05:00,
2013-01-02 12:07:00,26.2,21.2,30.15,WSW,249,0.0,7.0,81,0.00,,---,0.00,VWS V14.00,2013-01-02 17:07:00,
2013-01-02 12:09:00,26.1,21.1,30.15,WSW,249,0.0,7.0,81,0.00,,---,0.00,VWS V14.00,2013-01-02 17:09:00,
2013-01-02 12:10:00,26.1,21.1,30.15,WSW,249,0.0,7.0,81,0.00,,---,0.00,VWS V14.00,2013-01-02 17:10:00,
2013-01-02 12:11:00,26.1,21.1,30.15,WSW,245,0.0,7.0,81,0.00,,---,0.00,VWS V14.00,2013-01-02 17:11:00,
2013-01-02 12:14:00,26.1,21.1,30.15,WSW,238,0.0,7.0,81,0.00,,---,0.00,VWS V14.00,2013-01-02 17:14:00,
2013-01-02 12:15:00,26.1,21.1,30.14,WSW,238,0.0,7.0,81,0.00,,---,0.00,VWS V14.00,2013-01-02 17:15:00,
2013-01-02 12:16:00,26.1,21.1,30.14,WSW,238,0.0,7.0,81,0.00,,---,0.00,VWS V14.00,2013-01-02 17:16:00,
2013-01-02 12:20:00,26.1,21.1,30.14,WSW,257,0.0,7.0,81,0.00,,---,0.00,VWS V14.00,2013-01-02 17:20:00,
2013-01-02 12:21:00,26.2,21.2,30.15,WSW,257,0.0,7.0,81,0.00,,---,0.00,VWS V14.00,2013-01-02 17:21:00,
2013-01-02 12:25:00,26.0,21.0,30.15,West,261,5.0,7.0,81,0.00,,---,0.00,VWS V14.00,2013-01-02 17:25:00,
2013-01-02 12:26:00,26.0,21.0,30.15,West,261,3.0,7.0,81,0.00,,---,0.00,VWS V14.00,2013-01-02 17:26:00,
2013-01-02 12:27:00,26.0,21.0,30.15,West,261,3.0,7.0,81,0.00,,---,0.00,VWS V14.00,2013-01-02 17:27:00,
2013-01-02 12:28:00,26.0,21.0,30.15,West,261,5.0,5.0,81,0.00,,---,0.00,VWS V14.00,2013-01-02 17:28:00,
2013-01-02 12:31:00,26.0,21.0,30.15,West,271,4.0,7.0,81,0.00,,---,0.00,VWS V14.00,2013-01-02 17:31:00,
2013-01-02 12:32:00,26.0,21.0,30.15,West,271,4.0,7.0,81,0.00,,---,0.00,VWS V14.00,2013-01-02 17:32:00,
2013-01-02 12:33:00,25.9,20.9,30.15,West,270,3.0,7.0,81,0.00,,---,0.00,VWS V14.00,2013-01-02 17:33:00,
2013-01-02 12:36:00,25.8,20.8,30.14,West,271,2.0,7.0,81,0.00,,---,0.00,VWS V14.00,2013-01-02 17:36:00,
2013-01-02 12:37:00,25.8,20.8,30.14,West,271,4.0,7.0,81,0.00,,---,0.00,VWS V14.00,2013-01-02 17:37:00,
2013-01-02 12:39:00,25.8,20.8,30.14,West,268,3.0,7.0,81,0.00,,---,0.00,VWS V14.00,2013-01-02 17:39:00,
2013-01-02 12:40:00,25.8,20.8,30.14,West,261,6.0,7.0,81,0.00,,---,0.00,VWS V14.00,2013-01-02 17:40:00,
2013-01-02 12:42:00,25.8,20.8,30.14,WSW,248,3.0,7.0,81,0.00,,---,0.00,VWS V14.00,2013-01-02 17:42:00,
2013-01-02 12:43:00,25.8,20.8,30.14,WSW,256,4.0,7.0,81,0.00,,---,0.00,VWS V14.00,2013-01-02 17:43:00,
2013-01-02 12:44:00,25.8,20.8,30.15,West,260,7.0,7.0,81,0.00,,---,0.00,VWS V14.00,2013-01-02 17:44:00,
2013-01-02 12:47:00,25.8,20.8,30.14,West,263,1.0,7.0,81,0.00,,---,0.00,VWS V14.00,2013-01-02 17:47:00,
2013-01-02 12:49:00,25.8,20.8,30.14,West,264,6.0,7.0,81,0.00,,---,0.00,VWS V14.00,2013-01-02 17:49:00,
2013-01-02 12:50:00,25.8,20.8,30.14,West,265,5.0,7.0,81,0.00,,---,0.00,VWS V14.00,2013-01-02 17:50:00,
2013-01-02 12:53:00,25.9,20.9,30.14,West,265,4.0,7.0,81,0.00,,---,0.00,VWS V14.00,2013-01-02 17:53:00,
2013-01-02 12:54:00,25.9,20.9,30.14,West,264,6.0,7.0,81,0.00,,---,0.00,VWS V14.00,2013-01-02 17:54:00,
2013-01-02 12:55:00,25.9,20.9,30.14,West,265,2.0,7.0,81,0.00,,---,0.00,VWS V14.00,2013-01-02 17:55:00,
2013-01-02 12:59:00,25.9,20.9,30.14,West,264,5.0,6.0,81,0.00,,---,0.00,VWS V14.00,2013-01-02 17:59:00,
2013-01-02 13:00:00,25.9,20.9,30.14,West,264,4.0,6.0,81,0.00,,---,0.00,VWS V14.00,2013-01-02 18:00:00,
2013-01-02 13:03:00,26.0,21.0,30.14,West,264,5.0,6.0,81,0.00,,---,0.00,VWS V14.00,2013-01-02 18:03:00,
2013-01-02 13:05:00,26.0,21.3,30.14,West,264,2.0,7.0,82,0.00,,---,0.00,VWS V14.00,2013-01-02 18:05:00,
2013-01-02 13:06:00,26.1,21.4,30.14,West,264,3.0,7.0,82,0.00,,---,0.00,VWS V14.00,2013-01-02 18:06:00,
2013-01-02 13:09:00,26.1,21.4,30.14,West,263,4.0,7.0,82,0.00,,---,0.00,VWS V14.00,2013-01-02 18:09:00,
2013-01-02 13:10:00,26.1,21.1,30.14,West,260,3.0,7.0,81,0.00,,---,0.00,VWS V14.00,2013-01-02 18:10:00,
2013-01-02 13:11:00,26.1,21.1,30.14,West,261,3.0,7.0,81,0.00,,---,0.00,VWS V14.00,2013-01-02 18:11:00,
2013-01-02 13:16:00,26.1,21.1,30.14,West,260,3.0,7.0,81,0.00,,---,0.00,VWS V14.00,2013-01-02 18:16:00,
2013-01-02 13:17:00,26.0,21.0,30.14,West,261,2.0,7.0,81,0.00,,---,0.00,VWS V14.00,2013-01-02 18:17:00,
2013-01-02 13:18:00,26.1,21.1,30.14,West,259,3.0,7.0,81,0.00,,---,0.00,VWS V14.00,2013-01-02 18:18:00,
2013-01-02 13:23:00,26.1,21.1,30.13,West,260,2.0,7.0,81,0.00,,---,0.00,VWS V14.00,2013-01-02 18:23:00,
2013-01-02 13:24:00,26.1,21.1,30.14,West,260,3.0,7.0,81,0.00,,---,0.00,VWS V14.00,2013-01-02 18:24:00,
2013-01-02 13:25:00,26.2,21.2,30.14,West,260,2.0,7.0,81,0.00,,---,0.00,VWS V14.00,2013-01-02 18:25:00,
2013-01-02 13:26:00,26.2,21.2,30.14,West,260,0.0,7.0,81,0.00,,---,0.00,VWS V14.00,2013-01-02 18:26:00,
2013-01-02 13:28:00,26.2,21.2,30.14,West,259,2.0,4.0,81,0.00,,---,0.00,VWS V14.00,2013-01-02 18:28:00,
2013-01-02 13:29:00,26.2,21.2,30.14,WSW,257,4.0,5.0,81,0.00,,---,0.00,VWS V14.00,2013-01-02 18:29:00,
2013-01-02 13:30:00,26.2,21.2,30.14,WSW,257,3.0,5.0,81,0.00,,---,0.00,VWS V14.00,2013-01-02 18:30:00,
2013-01-02 13:31:00,26.2,21.2,30.13,WSW,256,4.0,5.0,81,0.00,,---,0.00,VWS V14.00,2013-01-02 18:31:00,
2013-01-02 13:33:00,26.2,21.2,30.13,WSW,257,3.0,5.0,81,0.00,,---,0.00,VWS V14.00,2013-01-02 18:33:00,
2013-01-02 13:36:00,26.1,21.1,30.13,WSW,256,3.0,5.0,81,0.00,,---,0.00,VWS V14.00,2013-01-02 18:36:00,
2013-01-02 13:38:00,26.2,21.2,30.13,WSW,257,2.0,5.0,81,0.00,,---,0.00,VWS V14.00,2013-01-02 18:38:00,
2013-01-02 13:40:00,26.2,21.2,30.13,WSW,257,0.0,5.0,81,0.00,,---,0.00,VWS V14.00,2013-01-02 18:40:00,
2013-01-02 13:42:00,26.2,21.2,30.13,WSW,258,3.0,6.0,81,0.00,,---,0.00,VWS V14.00,2013-01-02 18:42:00,
2013-01-02 13:43:00,26.2,21.2,30.14,WSW,258,4.0,6.0,81,0.00,,---,0.00,VWS V14.00,2013-01-02 18:43:00,
2013-01-02 13:47:00,26.2,21.2,30.13,WSW,257,1.0,6.0,81,0.00,,---,0.00,VWS V14.00,2013-01-02 18:47:00,
2013-01-02 13:48:00,26.2,21.2,30.13,WSW,258,3.0,6.0,81,0.00,,---,0.00,VWS V14.00,2013-01-02 18:48:00,
2013-01-02 13:49:00,26.2,21.2,30.13,WSW,257,3.0,6.0,81,0.00,,---,0.00,VWS V14.00,2013-01-02 18:49:00,
2013-01-02 13:52:00,26.2,21.2,30.13,WSW,241,2.0,6.0,81,0.00,,---,0.00,VWS V14.00,2013-01-02 18:52:00,
2013-01-02 13:53:00,26.1,21.1,30.13,WSW,241,1.0,6.0,81,0.00,,---,0.00,VWS V14.00,2013-01-02 18:53:00,
2013-01-02 13:55:00,26.2,21.2,30.13,WSW,241,1.0,6.0,81,0.00,,---,0.00,VWS V14.00,2013-01-02 18:55:00,
2013-01-02 13:58:00,26.2,21.2,30.13,WSW,241,0.0,6.0,81,0.00,,---,0.00,VWS V14.00,2013-01-02 18:58:00,
2013-01-02 14:00:00,26.2,21.2,30.12,WSW,241,2.0,2.0,81,0.00,,---,0.00,VWS V14.00,2013-01-02 19:00:00,
2013-01-02 14:04:00,26.1,21.1,30.12,WSW,241,0.0,5.0,81,0.00,,---,0.00,VWS V14.00,2013-01-02 19:04:00,
2013-01-02 14:05:00,26.1,21.1,30.12,WSW,238,0.0,5.0,81,0.00,,---,0.00,VWS V14.00,2013-01-02 19:05:00,
2013-01-02 14:06:00,26.1,21.1,30.12,WSW,247,1.0,5.0,81,0.00,,---,0.00,VWS V14.00,2013-01-02 19:06:00,
2013-01-02 14:07:00,26.1,21.1,30.12,WSW,250,3.0,6.0,81,0.00,,---,0.00,VWS V14.00,2013-01-02 19:07:00,
2013-01-02 14:09:00,26.1,21.1,30.12,WSW,250,0.0,6.0,81,0.00,,---,0.00,VWS V14.00,2013-01-02 19:09:00,
2013-01-02 14:10:00,26.1,21.1,30.12,WSW,250,0.0,6.0,81,0.00,,---,0.00,VWS V14.00,2013-01-02 19:10:00,
2013-01-02 14:11:00,26.1,21.1,30.12,WSW,250,0.0,6.0,81,0.00,,---,0.00,VWS V14.00,2013-01-02 19:11:00,
2013-01-02 14:14:00,26.2,21.2,30.12,West,263,2.0,9.0,81,0.00,,---,0.00,VWS V14.00,2013-01-02 19:14:00,
2013-01-02 14:16:00,26.2,21.2,30.12,West,261,3.0,9.0,81,0.00,,---,0.00,VWS V14.00,2013-01-02 19:16:00,
2013-01-02 14:17:00,26.2,21.2,30.12,West,265,5.0,9.0,81,0.00,,---,0.00,VWS V14.00,2013-01-02 19:17:00,
2013-01-02 14:20:00,26.1,21.1,30.12,West,266,4.0,9.0,81,0.00,,---,0.00,VWS V14.00,2013-01-02 19:20:00,
2013-01-02 14:22:00,26.1,21.1,30.12,SW,227,2.0,9.0,81,0.00,,---,0.00,VWS V14.00,2013-01-02 19:22:00,
2013-01-02 14:24:00,26.0,21.0,30.12,WSW,257,4.0,9.0,81,0.00,,---,0.00,VWS V14.00,2013-01-02 19:24:00,
2013-01-02 14:25:00,26.0,21.0,30.11,WSW,257,2.0,9.0,81,0.00,,---,0.00,VWS V14.00,2013-01-02 19:25:00,
2013-01-02 14:27:00,26.1,21.1,30.12,WSW,257,4.0,9.0,81,0.00,,---,0.00,VWS V14.00,2013-01-02 19:27:00,
2013-01-02 14:29:00,26.1,21.1,30.12,WSW,257,0.0,3.0,81,0.00,,---,0.00,VWS V14.00,2013-01-02 19:29:00,
2013-01-02 14:30:00,26.1,21.1,30.12,WSW,257,0.0,3.0,81,0.00,,---,0.00,VWS V14.00,2013-01-02 19:30:00,
2013-01-02 14:32:00,26.2,21.2,30.12,WSW,257,2.0,6.0,81,0.00,,---,0.00,VWS V14.00,2013-01-02 19:32:00,
2013-01-02 14:33:00,26.2,21.2,30.12,WSW,256,2.0,6.0,81,0.00,,---,0.00,VWS V14.00,2013-01-02 19:33:00,
2013-01-02 14:34:00,26.1,21.1,30.11,WSW,257,0.0,6.0,81,0.00,,---,0.00,VWS V14.00,2013-01-02 19:34:00,
2013-01-02 14:36:00,26.2,20.9,30.11,WSW,257,1.0,6.0,80,0.00,,---,0.00,VWS V14.00,2013-01-02 19:36:00,
2013-01-02 14:37:00,26.2,20.9,30.11,WSW,257,3.0,6.0,80,0.00,,---,0.00,VWS V14.00,2013-01-02 19:37:00,
2013-01-02 14:38:00,26.2,21.2,30.11,WSW,257,0.0,6.0,81,0.00,,---,0.00,VWS V14.00,2013-01-02 19:38:00,
2013-01-02 14:42:00,26.2,21.2,30.12,West,261,5.0,6.0,81,0.00,,---,0.00,VWS V14.00,2013-01-02 19:42:00,
2013-01-02 14:43:00,26.2,21.2,30.11,West,268,3.0,6.0,81,0.00,,---,0.00,VWS V14.00,2013-01-02 19:43:00,
2013-01-02 14:44:00,26.2,21.2,30.11,West,268,3.0,6.0,81,0.00,,---,0.00,VWS V14.00,2013-01-02 19:44:00,
2013-01-02 14:49:00,26.2,20.9,30.11,West,267,3.0,6.0,80,0.00,,---,0.00,VWS V14.00,2013-01-02 19:49:00,
2013-01-02 14:50:00,26.3,21.0,30.12,West,267,3.0,6.0,80,0.00,,---,0.00,VWS V14.00,2013-01-02 19:50:00,
2013-01-02 14:51:00,26.2,20.9,30.12,West,267,1.0,6.0,80,0.00,,---,0.00,VWS V14.00,2013-01-02 19:51:00,
2013-01-02 14:56:00,26.3,21.0,30.12,West,265,0.0,6.0,80,0.00,,---,0.00,VWS V14.00,2013-01-02 19:56:00,
2013-01-02 14:58:00,26.4,21.1,30.11,West,265,1.0,6.0,80,0.00,,---,0.00,VWS V14.00,2013-01-02 19:58:00,
2013-01-02 14:59:00,26.4,21.1,30.11,West,267,4.0,7.0,80,0.00,,---,0.00,VWS V14.00,2013-01-02 19:59:00,
2013-01-02 15:01:00,26.4,21.1,30.12,West,267,0.0,7.0,80,0.00,,---,0.00,VWS V14.00,2013-01-02 20:01:00,
2013-01-02 15:03:00,26.5,21.2,30.12,West,263,0.0,7.0,80,0.00,,---,0.00,VWS V14.00,2013-01-02 20:03:00,
2013-01-02 15:04:00,26.5,21.2,30.12,West,260,0.0,7.0,80,0.00,,---,0.00,VWS V14.00,2013-01-02 20:04:00,
2013-01-02 15:06:00,26.6,21.6,30.12,WSW,257,0.0,7.0,81,0.00,,---,0.00,VWS V14.00,2013-01-02 20:06:00,
2013-01-02 15:09:00,26.7,21.4,30.12,WSW,250,1.0,7.0,80,0.00,,---,0.00,VWS V14.00,2013-01-02 20:09:00,
2013-01-02 15:11:00,26.7,21.4,30.12,SW,221,2.0,7.0,80,0.00,,---,0.00,VWS V14.00,2013-01-02 20:11:00,
2013-01-02 15:14:00,26.7,21.7,30.12,SSW,210,2.0,7.0,81,0.00,,---,0.00,VWS V14.00,2013-01-02 20:14:00,
2013-01-02 15:15:00,26.7,21.7,30.13,SW,217,1.0,7.0,81,0.00,,---,0.00,VWS V14.00,2013-01-02 20:15:00,
2013-01-02 15:16:00,26.7,21.7,30.13,SW,217,3.0,7.0,81,0.00,,---,0.00,VWS V14.00,2013-01-02 20:16:00,
2013-01-02 15:17:00,26.7,21.7,30.13,SW,219,5.0,7.0,81,0.00,,---,0.00,VWS V14.00,2013-01-02 20:17:00,
2013-01-02 15:19:00,26.7,21.7,30.13,SSW,203,5.0,7.0,81,0.00,,---,0.00,VWS V14.00,2013-01-02 20:19:00,
2013-01-02 15:21:00,26.7,21.7,30.13,SSW,196,0.0,7.0,81,0.00,,---,0.00,VWS V14.00,2013-01-02 20:21:00,
2013-01-02 15:22:00,26.8,21.8,30.12,SSW,197,0.0,7.0,81,0.00,,---,0.00,VWS V14.00,2013-01-02 20:22:00,
2013-01-02 15:26:00,26.9,22.1,30.12,SSW,198,0.0,7.0,82,0.00,,---,0.00,VWS V14.00,2013-01-02 20:26:00,
2013-01-02 15:27:00,26.9,22.1,30.12,SSW,198,0.0,7.0,82,0.00,,---,0.00,VWS V14.00,2013-01-02 20:27:00,
2013-01-02 15:28:00,26.9,22.1,30.13,SSW,198,0.0,7.0,82,0.00,,---,0.00,VWS V14.00,2013-01-02 20:28:00,
2013-01-02 15:32:00,26.8,22.0,30.12,SSW,195,1.0,9.0,82,0.00,,---,0.00,VWS V14.00,2013-01-02 20:32:00,
2013-01-02 15:33:00,26.8,22.0,30.13,SSW,192,0.0,9.0,82,0.00,,---,0.00,VWS V14.00,2013-01-02 20:33:00,
2013-01-02 15:35:00,26.8,22.0,30.13,SSW,211,2.0,9.0,82,0.00,,---,0.00,VWS V14.00,2013-01-02 20:35:00,
2013-01-02 15:37:00,26.7,21.7,30.13,WSW,240,0.0,9.0,81,0.00,,---,0.00,VWS V14.00,2013-01-02 20:37:00,
2013-01-02 15:38:00,26.7,21.7,30.13,SW,234,0.0,9.0,81,0.00,,---,0.00,VWS V14.00,2013-01-02 20:38:00,
2013-01-02 15:39:00,26.7,21.7,30.13,SW,234,0.0,9.0,81,0.00,,---,0.00,VWS V14.00,2013-01-02 20:39:00,
2013-01-02 15:40:00,26.7,21.7,30.13,SW,236,4.0,9.0,81,0.00,,---,0.00,VWS V14.00,2013-01-02 20:40:00,
2013-01-02 15:42:00,26.6,21.6,30.13,SW,231,0.0,9.0,81,0.00,,---,0.00,VWS V14.00,2013-01-02 20:42:00,
2013-01-02 15:44:00,26.7,21.7,30.13,SW,223,0.0,9.0,81,0.00,,---,0.00,VWS V14.00,2013-01-02 20:44:00,
2013-01-02 15:45:00,26.7,22.0,30.13,SW,218,0.0,9.0,82,0.00,,---,0.00,VWS V14.00,2013-01-02 20:45:00,
2013-01-02 15:46:00,26.8,22.0,30.13,SSW,210,0.0,9.0,82,0.00,,---,0.00,VWS V14.00,2013-01-02 20:46:00,
2013-01-02 15:47:00,26.8,22.0,30.13,SSW,210,0.0,9.0,82,0.00,,---,0.00,VWS V14.00,2013-01-02 20:47:00,
2013-01-02 15:50:00,26.7,21.7,30.13,SW,234,0.0,9.0,81,0.00,,---,0.00,VWS V14.00,2013-01-02 20:50:00,
2013-01-02 15:51:00,26.7,21.7,30.13,SW,222,2.0,9.0,81,0.00,,---,0.00,VWS V14.00,2013-01-02 20:51:00,
2013-01-02 15:53:00,26.6,21.6,30.13,SSW,196,0.0,9.0,81,0.00,,---,0.00,VWS V14.00,2013-01-02 20:53:00,
2013-01-02 15:56:00,26.6,21.6,30.13,SW,234,2.0,9.0,81,0.00,,---,0.00,VWS V14.00,2013-01-02 20:56:00,
2013-01-02 15:58:00,26.6,21.6,30.13,SW,226,0.0,9.0,81,0.00,,---,0.00,VWS V14.00,2013-01-02 20:58:00,
2013-01-02 16:01:00,26.5,21.5,30.13,WSW,252,0.0,5.0,81,0.00,,---,0.00,VWS V14.00,2013-01-02 21:01:00,
2013-01-02 16:03:00,26.5,21.2,30.13,SW,236,1.0,6.0,80,0.00,,---,0.00,VWS V14.00,2013-01-02 21:03:00,
2013-01-02 16:04:00,26.5,21.2,30.13,SW,236,0.0,6.0,80,0.00,,---,0.00,VWS V14.00,2013-01-02 21:04:00,
2013-01-02 16:06:00,26.4,21.1,30.13,WSW,240,3.0,7.0,80,0.00,,---,0.00,VWS V14.00,2013-01-02 21:06:00,
2013-01-02 16:07:00,26.4,21.1,30.13,WSW,240,4.0,7.0,80,0.00,,---,0.00,VWS V14.00,2013-01-02 21:07:00,
2013-01-02 16:09:00,26.4,21.1,30.13,West,281,2.0,9.0,80,0.00,,---,0.00,VWS V14.00,2013-01-02 21:09:00,
2013-01-02 16:11:00,26.4,21.1,30.13,West,259,0.0,9.0,80,0.00,,---,0.00,VWS V14.00,2013-01-02 21:11:00,
2013-01-02 16:12:00,26.4,21.1,30.13,WSW,238,4.0,9.0,80,0.00,,---,0.00,VWS V14.00,2013-01-02 21:12:00,
2013-01-02 16:13:00,26.4,21.1,30.13,SW,220,2.0,9.0,80,0.00,,---,0.00,VWS V14.00,2013-01-02 21:13:00,
2013-01-02 16:14:00,26.5,21.2,30.13,SSW,209,0.0,9.0,80,0.00,,---,0.00,VWS V14.00,2013-01-02 21:14:00,
2013-01-02 16:17:00,26.6,21.6,30.14,SSW,210,0.0,9.0,81,0.00,,---,0.00,VWS V14.00,2013-01-02 21:17:00,
2013-01-02 16:18:00,26.6,21.3,30.14,SW,223,4.0,9.0,80,0.00,,---,0.00,VWS V14.00,2013-01-02 21:18:00,
2013-01-02 16:22:00,26.5,21.2,30.14,SW,230,3.0,9.0,80,0.00,,---,0.00,VWS V14.00,2013-01-02 21:22:00,
2013-01-02 16:23:00,26.5,21.2,30.14,SW,230,0.0,9.0,80,0.00,,---,0.00,VWS V14.00,2013-01-02 21:23:00,
2013-01-02 16:26:00,26.5,21.2,30.14,SW,232,0.0,9.0,80,0.00,,---,0.00,VWS V14.00,2013-01-02 21:26:00,
2013-01-02 16:28:00,26.5,21.2,30.14,WSW,250,0.0,9.0,80,0.00,,---,0.00,VWS V14.00,2013-01-02 21:28:00,
2013-01-02 16:31:00,26.5,21.2,30.14,WSW,240,0.0,3.0,80,0.00,,---,0.00,VWS V14.00,2013-01-02 21:31:00,
2013-01-02 16:33:00,26.5,21.2,30.14,SW,228,3.0,4.0,80,0.00,,---,0.00,VWS V14.00,2013-01-02 21:33:00,
2013-01-02 16:34:00,26.5,21.2,30.14,SW,230,5.0,5.0,80,0.00,,---,0.00,VWS V14.00,2013-01-02 21:34:00,
2013-01-02 16:35:00,26.5,21.2,30.14,WSW,242,4.0,6.0,80,0.00,,---,0.00,VWS V14.00,2013-01-02 21:35:00,
2013-01-02 16:37:00,26.5,20.9,30.14,WSW,242,1.0,6.0,79,0.00,,---,0.00,VWS V14.00,2013-01-02 21:37:00,
2013-01-02 16:40:00,26.4,20.8,30.14,SW,228,0.0,6.0,79,0.00,,---,0.00,VWS V14.00,2013-01-02 21:40:00,
2013-01-02 16:43:00,26.3,20.7,30.14,SSW,207,5.0,6.0,79,0.00,,---,0.00,VWS V14.00,2013-01-02 21:43:00,
2013-01-02 16:45:00,26.3,20.7,30.14,West,271,5.0,6.0,79,0.00,,---,0.00,VWS V14.00,2013-01-02 21:45:00,
2013-01-02 16:46:00,26.3,20.7,30.14,West,259,3.0,6.0,79,0.00,,---,0.00,VWS V14.00,2013-01-02 21:46:00,
2013-01-02 16:49:00,26.3,20.7,30.14,WSW,242,1.0,6.0,79,0.00,,---,0.00,VWS V14.00,2013-01-02 21:49:00,
2013-01-02 16:51:00,26.3,20.7,30.14,SW,233,3.0,6.0,79,0.00,,---,0.00,VWS V14.00,2013-01-02 21:51:00,
2013-01-02 16:52:00,26.3,20.7,30.14,SW,226,6.0,6.0,79,0.00,,---,0.00,VWS V14.00,2013-01-02 21:52:00,
2013-01-02 16:54:00,26.3,20.7,30.14,WSW,252,2.0,7.0,79,0.00,,---,0.00,VWS V14.00,2013-01-02 21:54:00,
2013-01-02 16:55:00,26.3,20.7,30.14,WSW,248,0.0,7.0,79,0.00,,---,0.00,VWS V14.00,2013-01-02 21:55:00,
2013-01-02 16:57:00,26.4,20.8,30.14,West,261,0.0,7.0,79,0.00,,---,0.00,VWS V14.00,2013-01-02 21:57:00,
2013-01-02 17:00:00,26.4,20.8,30.14,West,260,0.0,0.0,79,0.00,,---,0.00,VWS V14.00,2013-01-02 22:00:00,
2013-01-02 17:03:00,26.4,20.8,30.14,WSW,238,0.0,7.0,79,0.00,,---,0.00,VWS V14.00,2013-01-02 22:03:00,
2013-01-02 17:05:00,26.4,20.8,30.14,SW,229,5.0,7.0,79,0.00,,---,0.00,VWS V14.00,2013-01-02 22:05:00,
2013-01-02 17:07:00,26.4,20.8,30.14,SW,229,0.0,7.0,79,0.00,,---,0.00,VWS V14.00,2013-01-02 22:07:00,
2013-01-02 17:09:00,26.4,20.8,30.14,SW,229,0.0,7.0,79,0.00,,---,0.00,VWS V14.00,2013-01-02 22:09:00,
2013-01-02 17:10:00,26.4,20.8,30.14,SW,231,3.0,7.0,79,0.00,,---,0.00,VWS V14.00,2013-01-02 22:10:00,
2013-01-02 17:12:00,26.4,20.8,30.14,SW,235,5.0,7.0,79,0.00,,---,0.00,VWS V14.00,2013-01-02 22:12:00,
2013-01-02 17:13:00,26.4,20.8,30.14,SW,234,3.0,7.0,79,0.00,,---,0.00,VWS V14.00,2013-01-02 22:13:00,
2013-01-02 17:15:00,26.4,20.8,30.14,SW,234,4.0,7.0,79,0.00,,---,0.00,VWS V14.00,2013-01-02 22:15:00,
2013-01-02 17:16:00,26.4,20.8,30.14,SW,229,0.0,7.0,79,0.00,,---,0.00,VWS V14.00,2013-01-02 22:16:00,
2013-01-02 17:17:00,26.3,20.7,30.14,SW,234,0.0,7.0,79,0.00,,---,0.00,VWS V14.00,2013-01-02 22:17:00,
2013-01-02 17:19:00,26.4,20.8,30.14,WSW,238,0.0,7.0,79,0.00,,---,0.00,VWS V14.00,2013-01-02 22:19:00,
2013-01-02 17:21:00,26.4,20.8,30.15,SW,231,0.0,7.0,79,0.00,,---,0.00,VWS V14.00,2013-01-02 22:21:00,
2013-01-02 17:22:00,26.4,20.8,30.15,SW,230,0.0,7.0,79,0.00,,---,0.00,VWS V14.00,2013-01-02 22:22:00,
2013-01-02 17:23:00,26.4,20.8,30.15,SW,232,4.0,7.0,79,0.00,,---,0.00,VWS V14.00,2013-01-02 22:23:00,
2013-01-02 17:25:00,26.3,20.7,30.15,SW,232,0.0,7.0,79,0.00,,---,0.00,VWS V14.00,2013-01-02 22:25:00,
2013-01-02 17:26:00,26.3,20.7,30.15,SW,232,0.0,7.0,79,0.00,,---,0.00,VWS V14.00,2013-01-02 22:26:00,
2013-01-02 17:27:00,26.3,20.7,30.15,SW,232,0.0,7.0,79,0.00,,---,0.00,VWS V14.00,2013-01-02 22:27:00,
2013-01-02 17:30:00,26.3,20.7,30.15,SW,233,0.0,4.0,79,0.00,,---,0.00,VWS V14.00,2013-01-02 22:30:00,
2013-01-02 17:31:00,26.3,20.7,30.15,SW,234,0.0,4.0,79,0.00,,---,0.00,VWS V14.00,2013-01-02 22:31:00,
2013-01-02 17:32:00,26.3,20.7,30.15,SW,234,0.0,4.0,79,0.00,,---,0.00,VWS V14.00,2013-01-02 22:32:00,
2013-01-02 17:35:00,26.3,20.7,30.15,SW,233,2.0,4.0,79,0.00,,---,0.00,VWS V14.00,2013-01-02 22:35:00,
2013-01-02 17:36:00,26.3,20.7,30.14,SW,233,0.0,4.0,79,0.00,,---,0.00,VWS V14.00,2013-01-02 22:36:00,
2013-01-02 17:37:00,26.3,20.7,30.14,SW,234,0.0,4.0,79,0.00,,---,0.00,VWS V14.00,2013-01-02 22:37:00,
2013-01-02 17:38:00,26.3,20.7,30.15,SW,234,1.0,4.0,79,0.00,,---,0.00,VWS V14.00,2013-01-02 22:38:00,
2013-01-02 17:41:00,26.3,20.7,30.15,WSW,242,1.0,7.0,79,0.00,,---,0.00,VWS V14.00,2013-01-02 22:41:00,
2013-01-02 17:42:00,26.2,20.6,30.15,WSW,244,0.0,7.0,79,0.00,,---,0.00,VWS V14.00,2013-01-02 22:42:00,
2013-01-02 17:43:00,26.2,20.6,30.15,WSW,244,0.0,7.0,79,0.00,,---,0.00,VWS V14.00,2013-01-02 22:43:00,
2013-01-02 17:44:00,26.2,20.6,30.15,WSW,244,1.0,7.0,79,0.00,,---,0.00,VWS V14.00,2013-01-02 22:44:00,
2013-01-02 17:48:00,26.2,20.6,30.15,SW,232,4.0,7.0,79,0.00,,---,0.00,VWS V14.00,2013-01-02 22:48:00,
2013-01-02 17:49:00,26.2,20.6,30.15,SW,232,0.0,7.0,79,0.00,,---,0.00,VWS V14.00,2013-01-02 22:49:00,
2013-01-02 17:50:00,26.2,20.6,30.15,SW,232,0.0,7.0,79,0.00,,---,0.00,VWS V14.00,2013-01-02 22:50:00,
2013-01-02 17:54:00,26.2,20.9,30.15,SW,232,0.0,7.0,80,0.00,,---,0.00,VWS V14.00,2013-01-02 22:54:00,
2013-01-02 17:55:00,26.2,20.9,30.15,SW,232,0.0,7.0,80,0.00,,---,0.00,VWS V14.00,2013-01-02 22:55:00,
2013-01-02 17:57:00,26.2,20.9,30.15,SW,232,3.0,7.0,80,0.00,,---,0.00,VWS V14.00,2013-01-02 22:57:00,
2013-01-02 18:00:00,26.1,20.5,30.15,SW,230,2.0,7.0,79,0.00,,---,0.00,VWS V14.00,2013-01-02 23:00:00,
2013-01-02 18:01:00,26.1,20.5,30.15,SW,230,3.0,7.0,79,0.00,,---,0.00,VWS V14.00,2013-01-02 23:01:00,
2013-01-02 18:02:00,26.0,20.4,30.15,WSW,238,0.0,7.0,79,0.00,,---,0.00,VWS V14.00,2013-01-02 23:02:00,
2013-01-02 18:04:00,26.0,20.4,30.15,WSW,238,0.0,7.0,79,0.00,,---,0.00,VWS V14.00,2013-01-02 23:04:00,
2013-01-02 18:05:00,26.0,20.4,30.15,SW,234,4.0,7.0,79,0.00,,---,0.00,VWS V14.00,2013-01-02 23:05:00,
2013-01-02 18:06:00,26.0,20.4,30.15,SW,236,1.0,7.0,79,0.00,,---,0.00,VWS V14.00,2013-01-02 23:06:00,
2013-01-02 18:07:00,26.0,20.4,30.15,WSW,242,0.0,7.0,79,0.00,,---,0.00,VWS V14.00,2013-01-02 23:07:00,
2013-01-02 18:09:00,26.0,20.4,30.15,SW,229,4.0,7.0,79,0.00,,---,0.00,VWS V14.00,2013-01-02 23:09:00,
2013-01-02 18:13:00,26.0,20.4,30.15,SW,215,0.0,7.0,79,0.00,,---,0.00,VWS V14.00,2013-01-02 23:13:00,
2013-01-02 18:14:00,26.0,20.4,30.15,SSW,209,0.0,7.0,79,0.00,,---,0.00,VWS V14.00,2013-01-02 23:14:00,
2013-01-02 18:19:00,26.0,20.4,30.15,SSW,213,0.0,7.0,79,0.00,,---,0.00,VWS V14.00,2013-01-02 23:19:00,
2013-01-02 18:20:00,26.0,20.4,30.15,West,261,0.0,7.0,79,0.00,,---,0.00,VWS V14.00,2013-01-02 23:20:00,
2013-01-02 18:21:00,26.0,20.4,30.16,SW,227,5.0,7.0,79,0.00,,---,0.00,VWS V14.00,2013-01-02 23:21:00,
2013-01-02 18:24:00,26.0,20.4,30.16,SW,218,0.0,7.0,79,0.00,,---,0.00,VWS V14.00,2013-01-02 23:24:00,
2013-01-02 18:25:00,26.0,20.4,30.16,SW,218,0.0,7.0,79,0.00,,---,0.00,VWS V14.00,2013-01-02 23:25:00,
2013-01-02 18:29:00,25.8,20.2,30.16,SSW,209,0.0,5.0,79,0.00,,---,0.00,VWS V14.00,2013-01-02 23:29:00,
2013-01-02 18:30:00,25.8,20.2,30.16,SSW,198,0.0,5.0,79,0.00,,---,0.00,VWS V14.00,2013-01-02 23:30:00,
2013-01-02 18:35:00,25.8,20.5,30.16,SSW,203,0.0,5.0,80,0.00,,---,0.00,VWS V14.00,2013-01-02 23:35:00,
2013-01-02 18:36:00,25.8,20.5,30.16,SSW,202,0.0,5.0,80,0.00,,---,0.00,VWS V14.00,2013-01-02 23:36:00,
2013-01-02 18:41:00,25.7,20.7,30.16,SSW,199,2.0,7.0,81,0.00,,---,0.00,VWS V14.00,2013-01-02 23:41:00,
2013-01-02 18:42:00,25.6,20.6,30.16,South,190,2.0,7.0,81,0.00,,---,0.00,VWS V14.00,2013-01-02 23:42:00,
2013-01-02 18:46:00,25.4,20.4,30.16,South,183,3.0,7.0,81,0.00,,---,0.00,VWS V14.00,2013-01-02 23:46:00,
2013-01-02 18:47:00,25.3,20.3,30.16,South,185,4.0,7.0,81,0.00,,---,0.00,VWS V14.00,2013-01-02 23:47:00,
2013-01-02 18:48:00,25.3,20.3,30.16,SSE,154,7.0,7.0,81,0.00,,---,0.00,VWS V14.00,2013-01-02 23:48:00,
2013-01-02 18:51:00,25.2,20.2,30.16,SSE,161,4.0,7.0,81,0.00,,---,0.00,VWS V14.00,2013-01-02 23:51:00,
2013-01-02 18:54:00,25.1,20.1,30.16,South,179,5.0,7.0,81,0.00,,---,0.00,VWS V14.00,2013-01-02 23:54:00,
2013-01-02 18:56:00,25.1,20.1,30.16,South,169,5.0,12.0,81,0.00,,---,0.00,VWS V14.00,2013-01-02 23:56:00,
2013-01-02 18:59:00,25.1,20.1,30.16,SSW,194,2.0,5.0,81,0.00,,---,0.00,VWS V14.00,2013-01-02 23:59:00,
2013-01-02 19:00:00,25.0,20.0,30.16,SSW,200,3.0,7.0,81,0.00,,---,0.00,VWS V14.00,2013-01-03 00:00:00,
2013-01-02 19:01:00,24.9,19.9,30.16,SSW,209,2.0,10.0,81,0.00,,---,0.00,VWS V14.00,2013-01-03 00:01:00,
2013-01-02 19:03:00,24.9,19.9,30.16,South,184,4.0,10.0,81,0.00,,---,0.00,VWS V14.00,2013-01-03 00:03:00,
2013-01-02 19:05:00,24.8,20.1,30.16,South,173,4.0,10.0,82,0.00,,---,0.00,VWS V14.00,2013-01-03 00:05:00,
2013-01-02 19:08:00,24.6,19.6,30.16,SSW,208,2.0,10.0,81,0.00,,---,0.00,VWS V14.00,2013-01-03 00:08:00,
2013-01-02 19:10:00,24.4,19.4,30.16,South,180,3.0,10.0,81,0.00,,---,0.00,VWS V14.00,2013-01-03 00:10:00,
2013-01-02 19:14:00,24.4,19.4,30.16,South,188,5.0,10.0,81,0.00,,---,0.00,VWS V14.00,2013-01-03 00:14:00,
2013-01-02 19:15:00,24.4,19.7,30.16,South,178,4.0,11.0,82,0.00,,---,0.00,VWS V14.00,2013-01-03 00:15:00,
2013-01-02 19:16:00,24.3,19.6,30.16,SSW,200,5.0,11.0,82,0.00,,---,0.00,VWS V14.00,2013-01-03 00:16:00,
2013-01-02 19:19:00,24.2,19.2,30.16,SSW,210,3.0,11.0,81,0.00,,---,0.00,VWS V14.00,2013-01-03 00:19:00,
2013-01-02 19:20:00,24.1,19.1,30.16,South,186,0.0,11.0,81,0.00,,---,0.00,VWS V14.00,2013-01-03 00:20:00,
2013-01-02 19:21:00,24.1,19.1,30.16,South,186,0.0,11.0,81,0.00,,---,0.00,VWS V14.00,2013-01-03 00:21:00,
2013-01-02 19:25:00,24.0,19.0,30.16,SSW,203,0.0,11.0,81,0.00,,---,0.00,VWS V14.00,2013-01-03 00:25:00,
2013-01-02 19:26:00,24.0,19.0,30.16,SSW,195,2.0,11.0,81,0.00,,---,0.00,VWS V14.00,2013-01-03 00:26:00,
2013-01-02 19:27:00,24.0,19.3,30.16,South,183,3.0,11.0,82,0.00,,---,0.00,VWS V14.00,2013-01-03 00:27:00,
2013-01-02 19:30:00,23.9,18.9,30.16,South,180,1.0,6.0,81,0.00,,---,0.00,VWS V14.00,2013-01-03 00:30:00,
2013-01-02 19:31:00,23.9,19.2,30.16,South,175,1.0,6.0,82,0.00,,---,0.00,VWS V14.00,2013-01-03 00:31:00,
2013-01-02 19:34:00,23.8,19.1,30.16,South,176,0.0,6.0,82,0.00,,---,0.00,VWS V14.00,2013-01-03 00:34:00,
2013-01-02 19:36:00,23.7,19.0,30.16,SSW,195,0.0,6.0,82,0.00,,---,0.00,VWS V14.00,2013-01-03 00:36:00,
2013-01-02 19:38:00,23.6,18.6,30.16,SSE,164,0.0,6.0,81,0.00,,---,0.00,VWS V14.00,2013-01-03 00:38:00,
2013-01-02 19:39:00,23.6,18.6,30.16,South,178,0.0,6.0,81,0.00,,---,0.00,VWS V14.00,2013-01-03 00:39:00,
2013-01-02 19:40:00,23.5,18.5,30.16,South,179,3.0,6.0,81,0.00,,---,0.00,VWS V14.00,2013-01-03 00:40:00,
2013-01-02 19:41:00,23.5,18.5,30.16,South,178,3.0,6.0,81,0.00,,---,0.00,VWS V14.00,2013-01-03 00:41:00,
2013-01-02 19:43:00,23.5,18.8,30.16,South,178,1.0,6.0,82,0.00,,---,0.00,VWS V14.00,2013-01-03 00:43:00,
2013-01-02 19:44:00,23.5,18.8,30.16,South,178,2.0,6.0,82,0.00,,---,0.00,VWS V14.00,2013-01-03 00:44:00,
2013-01-02 19:46:00,23.4,18.7,30.16,South,180,5.0,6.0,82,0.00,,---,0.00,VWS V14.00,2013-01-03 00:46:00,
2013-01-02 19:47:00,23.4,18.7,30.16,South,174,2.0,6.0,82,0.00,,---,0.00,VWS V14.00,2013-01-03 00:47:00,
2013-01-02 19:48:00,23.3,18.6,30.16,SSW,206,2.0,7.0,82,0.00,,---,0.00,VWS V14.00,2013-01-03 00:48:00,
2013-01-02 19:50:00,23.3,18.6,30.16,SSW,198,2.0,7.0,82,0.00,,---,0.00,VWS V14.00,2013-01-03 00:50:00,
2013-01-02 19:51:00,23.2,18.5,30.16,South,188,6.0,7.0,82,0.00,,---,0.00,VWS V14.00,2013-01-03 00:51:00,
2013-01-02 19:52:00,23.2,18.5,30.16,South,189,1.0,7.0,82,0.00,,---,0.00,VWS V14.00,2013-01-03 00:52:00,
2013-01-02 19:53:00,23.2,18.5,30.16,South,190,0.0,7.0,82,0.00,,---,0.00,VWS V14.00,2013-01-03 00:53:00,
2013-01-02 19:55:00,23.1,18.4,30.16,South,190,4.0,7.0,82,0.00,,---,0.00,VWS V14.00,2013-01-03 00:55:00,
2013-01-02 19:56:00,23.1,18.4,30.16,South,190,0.0,7.0,82,0.00,,---,0.00,VWS V14.00,2013-01-03 00:56:00,
2013-01-02 19:57:00,23.1,18.4,30.16,South,190,0.0,7.0,82,0.00,,---,0.00,VWS V14.00,2013-01-03 00:57:00,
2013-01-02 19:59:00,23.0,18.3,30.16,South,174,0.0,5.0,82,0.00,,---,0.00,VWS V14.00,2013-01-03 00:59:00,
2013-01-02 20:02:00,23.0,18.3,30.16,SSW,192,0.0,5.0,82,0.00,,---,0.00,VWS V14.00,2013-01-03 01:02:00,
2013-01-02 20:03:00,23.0,18.6,30.16,SSW,192,0.0,5.0,83,0.00,,---,0.00,VWS V14.00,2013-01-03 01:03:00,
2013-01-02 20:05:00,22.9,18.2,30.16,SSW,192,4.0,5.0,82,0.00,,---,0.00,VWS V14.00,2013-01-03 01:05:00,
2013-01-02 20:07:00,22.8,18.1,30.16,SSW,202,0.0,6.0,82,0.00,,---,0.00,VWS V14.00,2013-01-03 01:07:00,
2013-01-02 20:10:00,22.7,18.0,30.16,South,180,1.0,6.0,82,0.00,,---,0.00,VWS V14.00,2013-01-03 01:10:00,
2013-01-02 20:12:00,22.7,18.0,30.15,SSW,196,2.0,6.0,82,0.00,,---,0.00,VWS V14.00,2013-01-03 01:12:00,
2013-01-02 20:15:00,22.6,17.9,30.15,SSW,200,2.0,6.0,82,0.00,,---,0.00,VWS V14.00,2013-01-03 01:15:00,
2013-01-02 20:16:00,22.6,17.9,30.16,South,182,0.0,6.0,82,0.00,,---,0.00,VWS V14.00,2013-01-03 01:16:00,
2013-01-02 20:17:00,22.5,17.9,30.15,South,181,0.0,6.0,82,0.00,,---,0.00,VWS V14.00,2013-01-03 01:17:00,
2013-01-02 20:20:00,22.4,17.8,30.15,South,186,4.0,6.0,82,0.00,,---,0.00,VWS V14.00,2013-01-03 01:20:00,
2013-01-02 20:22:00,22.4,17.8,30.16,South,190,0.0,6.0,82,0.00,,---,0.00,VWS V14.00,2013-01-03 01:22:00,
2013-01-02 20:24:00,22.3,17.6,30.15,SSW,194,0.0,6.0,82,0.00,,---,0.00,VWS V14.00,2013-01-03 01:24:00,
2013-01-02 20:27:00,22.2,17.5,30.15,South,190,0.0,6.0,82,0.00,,---,0.00,VWS V14.00,2013-01-03 01:27:00,
2013-01-02 20:28:00,22.2,17.5,30.15,South,188,3.0,9.0,82,0.00,,---,0.00,VWS V14.00,2013-01-03 01:28:00,
2013-01-02 20:29:00,22.2,17.5,30.15,South,180,3.0,3.0,82,0.00,,---,0.00,VWS V14.00,2013-01-03 01:29:00,
2013-01-02 20:33:00,22.1,17.5,30.15,SSE,160,1.0,5.0,82,0.00,,---,0.00,VWS V14.00,2013-01-03 01:33:00,
2013-01-02 20:34:00,22.1,17.5,30.15,SSE,163,0.0,5.0,82,0.00,,---,0.00,VWS V14.00,2013-01-03 01:34:00,
2013-01-02 20:38:00,22.0,17.4,30.15,SSW,205,0.0,6.0,82,0.00,,---,0.00,VWS V14.00,2013-01-03 01:38:00,
2013-01-02 20:39:00,22.0,17.4,30.15,SSW,205,0.0,6.0,82,0.00,,---,0.00,VWS V14.00,2013-01-03 01:39:00,
2013-01-02 20:40:00,22.0,17.4,30.15,SSW,205,0.0,6.0,82,0.00,,---,0.00,VWS V14.00,2013-01-03 01:40:00,
2013-01-02 20:45:00,21.8,17.2,30.15,South,190,0.0,6.0,82,0.00,,---,0.00,VWS V14.00,2013-01-03 01:45:00,
2013-01-02 20:46:00,21.8,17.2,30.15,South,186,2.0,6.0,82,0.00,,---,0.00,VWS V14.00,2013-01-03 01:46:00,
2013-01-02 20:48:00,21.7,17.1,30.15,South,184,0.0,6.0,82,0.00,,---,0.00,VWS V14.00,2013-01-03 01:48:00,
2013-01-02 20:50:00,21.7,17.1,30.15,South,184,0.0,6.0,82,0.00,,---,0.00,VWS V14.00,2013-01-03 01:50:00,
2013-01-02 20:51:00,21.7,17.1,30.15,South,180,0.0,6.0,82,0.00,,---,0.00,VWS V14.00,2013-01-03 01:51:00,
2013-01-02 20:53:00,21.7,17.1,30.15,South,171,0.0,6.0,82,0.00,,---,0.00,VWS V14.00,2013-01-03 01:53:00,
2013-01-02 20:56:00,21.6,17.0,30.15,South,172,0.0,6.0,82,0.00,,---,0.00,VWS V14.00,2013-01-03 01:56:00,
2013-01-02 20:57:00,21.7,17.1,30.14,South,173,2.0,6.0,82,0.00,,---,0.00,VWS V14.00,2013-01-03 01:57:00,
2013-01-02 20:58:00,21.6,17.0,30.14,South,182,3.0,6.0,82,0.00,,---,0.00,VWS V14.00,2013-01-03 01:58:00,
2013-01-02 21:01:00,21.6,17.2,30.14,South,181,1.0,5.0,83,0.00,,---,0.00,VWS V14.00,2013-01-03 02:01:00,
2013-01-02 21:02:00,21.6,17.2,30.14,South,179,2.0,5.0,83,0.00,,---,0.00,VWS V14.00,2013-01-03 02:02:00,
2013-01-02 21:03:00,21.6,17.2,30.14,South,181,0.0,5.0,83,0.00,,---,0.00,VWS V14.00,2013-01-03 02:03:00,
2013-01-02 21:05:00,21.5,17.1,30.14,South,169,0.0,5.0,83,0.00,,---,0.00,VWS V14.00,2013-01-03 02:05:00,
2013-01-02 21:06:00,21.5,17.1,30.14,South,171,0.0,5.0,83,0.00,,---,0.00,VWS V14.00,2013-01-03 02:06:00,
2013-01-02 21:08:00,21.4,17.0,30.15,South,169,2.0,5.0,83,0.00,,---,0.00,VWS V14.00,2013-01-03 02:08:00,
2013-01-02 21:10:00,21.3,17.0,30.15,South,172,0.0,5.0,83,0.00,,---,0.00,VWS V14.00,2013-01-03 02:10:00,
2013-01-02 21:12:00,21.3,17.0,30.15,South,172,0.0,5.0,83,0.00,,---,0.00,VWS V14.00,2013-01-03 02:12:00,
2013-01-02 21:13:00,21.3,17.0,30.15,South,182,0.0,5.0,83,0.00,,---,0.00,VWS V14.00,2013-01-03 02:13:00,
2013-01-02 21:15:00,21.3,17.0,30.15,South,188,4.0,5.0,83,0.00,,---,0.00,VWS V14.00,2013-01-03 02:15:00,
2013-01-02 21:16:00,21.2,16.9,30.15,South,185,0.0,5.0,83,0.00,,---,0.00,VWS V14.00,2013-01-03 02:16:00,
2013-01-02 21:17:00,21.2,16.9,30.15,South,191,4.0,5.0,83,0.00,,---,0.00,VWS V14.00,2013-01-03 02:17:00,
2013-01-02 21:18:00,21.2,16.9,30.14,South,188,0.0,5.0,83,0.00,,---,0.00,VWS V14.00,2013-01-03 02:18:00,
2013-01-02 21:21:00,21.2,16.9,30.14,South,178,3.0,6.0,83,0.00,,---,0.00,VWS V14.00,2013-01-03 02:21:00,
2013-01-02 21:22:00,21.2,16.9,30.14,South,184,0.0,6.0,83,0.00,,---,0.00,VWS V14.00,2013-01-03 02:22:00,
2013-01-02 21:25:00,21.2,17.1,30.15,South,178,5.0,6.0,84,0.00,,---,0.00,VWS V14.00,2013-01-03 02:25:00,
2013-01-02 21:26:00,21.2,17.1,30.15,South,180,4.0,6.0,84,0.00,,---,0.00,VWS V14.00,2013-01-03 02:26:00,
2013-01-02 21:27:00,21.1,17.0,30.15,South,184,3.0,6.0,84,0.00,,---,0.00,VWS V14.00,2013-01-03 02:27:00,
2013-01-02 21:32:00,21.0,16.9,30.14,South,174,3.0,9.0,84,0.00,,---,0.00,VWS V14.00,2013-01-03 02:32:00,
2013-01-02 21:33:00,21.0,16.9,30.14,South,173,0.0,9.0,84,0.00,,---,0.00,VWS V14.00,2013-01-03 02:33:00,
2013-01-02 21:34:00,21.0,16.9,30.14,SSW,210,0.0,9.0,84,0.00,,---,0.00,VWS V14.00,2013-01-03 02:34:00,
2013-01-02 21:39:00,20.8,16.7,30.14,SSW,194,0.0,9.0,84,0.00,,---,0.00,VWS V14.00,2013-01-03 02:39:00,
2013-01-02 21:40:00,20.7,16.6,30.14,South,175,3.0,9.0,84,0.00,,---,0.00,VWS V14.00,2013-01-03 02:40:00,
2013-01-02 21:41:00,20.7,16.6,30.14,South,175,2.0,9.0,84,0.00,,---,0.00,VWS V14.00,2013-01-03 02:41:00,
2013-01-02 21:44:00,20.7,16.6,30.14,South,171,2.0,9.0,84,0.00,,---,0.00,VWS V14.00,2013-01-03 02:44:00,
2013-01-02 21:45:00,20.7,16.6,30.14,South,171,0.0,9.0,84,0.00,,---,0.00,VWS V14.00,2013-01-03 02:45:00,
2013-01-02 21:47:00,20.7,16.6,30.14,South,172,0.0,9.0,84,0.00,,---,0.00,VWS V14.00,2013-01-03 02:47:00,
2013-01-02 21:51:00,20.6,16.5,30.14,South,183,1.0,9.0,84,0.00,,---,0.00,VWS V14.00,2013-01-03 02:51:00,
2013-01-02 21:52:00,20.6,16.5,30.14,South,183,0.0,9.0,84,0.00,,---,0.00,VWS V14.00,2013-01-03 02:52:00,
2013-01-02 21:56:00,20.6,16.5,30.14,South,180,0.0,9.0,84,0.00,,---,0.00,VWS V14.00,2013-01-03 02:56:00,
2013-01-02 21:58:00,20.6,16.5,30.14,South,180,0.0,0.0,84,0.00,,---,0.00,VWS V14.00,2013-01-03 02:58:00,
2013-01-02 21:59:00,20.6,16.8,30.14,South,180,0.0,0.0,85,0.00,,---,0.00,VWS V14.00,2013-01-03 02:59:00,
2013-01-02 22:02:00,20.5,16.7,30.14,South,180,0.0,5.0,85,0.00,,---,0.00,VWS V14.00,2013-01-03 03:02:00,
2013-01-02 22:03:00,20.5,16.7,30.14,SSE,164,2.0,5.0,85,0.00,,---,0.00,VWS V14.00,2013-01-03 03:03:00,
2013-01-02 22:05:00,20.4,16.6,30.14,SSE,164,0.0,5.0,85,0.00,,---,0.00,VWS V14.00,2013-01-03 03:05:00,
2013-01-02 22:07:00,20.4,16.6,30.14,South,191,7.0,7.0,85,0.00,,---,0.00,VWS V14.00,2013-01-03 03:07:00,
2013-01-02 22:08:00,20.4,16.6,30.14,SSW,192,4.0,7.0,85,0.00,,---,0.00,VWS V14.00,2013-01-03 03:08:00,
2013-01-02 22:13:00,20.3,16.5,30.14,South,184,1.0,7.0,85,0.00,,---,0.00,VWS V14.00,2013-01-03 03:13:00,
2013-01-02 22:16:00,20.3,16.5,30.14,SSE,168,4.0,7.0,85,0.00,,---,0.00,VWS V14.00,2013-01-03 03:16:00,
2013-01-02 22:18:00,20.2,16.4,30.14,South,178,0.0,7.0,85,0.00,,---,0.00,VWS V14.00,2013-01-03 03:18:00,
2013-01-02 22:19:00,20.2,16.4,30.14,South,178,0.0,7.0,85,0.00,,---,0.00,VWS V14.00,2013-01-03 03:19:00,
2013-01-02 22:22:00,20.2,16.4,30.14,South,176,1.0,7.0,85,0.00,,---,0.00,VWS V14.00,2013-01-03 03:22:00,
2013-01-02 22:23:00,20.2,16.4,30.14,South,177,0.0,7.0,85,0.00,,---,0.00,VWS V14.00,2013-01-03 03:23:00,
2013-01-02 22:24:00,20.2,16.4,30.14,South,177,0.0,7.0,85,0.00,,---,0.00,VWS V14.00,2013-01-03 03:24:00,
2013-01-02 22:25:00,20.2,16.4,30.14,SSE,157,0.0,7.0,85,0.00,,---,0.00,VWS V14.00,2013-01-03 03:25:00,
2013-01-02 22:31:00,20.1,16.3,30.14,SSE,165,0.0,4.0,85,0.00,,---,0.00,VWS V14.00,2013-01-03 03:31:00,
2013-01-02 22:32:00,20.1,16.3,30.14,South,175,0.0,4.0,85,0.00,,---,0.00,VWS V14.00,2013-01-03 03:32:00,
2013-01-02 22:33:00,20.1,16.3,30.14,South,180,1.0,4.0,85,0.00,,---,0.00,VWS V14.00,2013-01-03 03:33:00,
2013-01-02 22:37:00,20.0,16.2,30.14,South,182,0.0,5.0,85,0.00,,---,0.00,VWS V14.00,2013-01-03 03:37:00,
2013-01-02 22:42:00,20.0,16.2,30.14,South,184,3.0,5.0,85,0.00,,---,0.00,VWS V14.00,2013-01-03 03:42:00,
2013-01-02 22:43:00,20.0,16.2,30.14,South,188,2.0,5.0,85,0.00,,---,0.00,VWS V14.00,2013-01-03 03:43:00,
2013-01-02 22:46:00,19.9,16.1,30.14,South,184,0.0,5.0,85,0.00,,---,0.00,VWS V14.00,2013-01-03 03:46:00,
2013-01-02 22:47:00,19.8,16.0,30.14,South,184,0.0,5.0,85,0.00,,---,0.00,VWS V14.00,2013-01-03 03:47:00,
2013-01-02 22:50:00,19.8,16.0,30.14,South,186,0.0,5.0,85,0.00,,---,0.00,VWS V14.00,2013-01-03 03:50:00,
2013-01-02 22:52:00,19.7,15.9,30.14,South,182,3.0,5.0,85,0.00,,---,0.00,VWS V14.00,2013-01-03 03:52:00,
2013-01-02 22:53:00,19.7,15.9,30.14,South,190,1.0,5.0,85,0.00,,---,0.00,VWS V14.00,2013-01-03 03:53:00,
2013-01-02 22:55:00,19.7,15.7,30.14,South,190,0.0,5.0,84,0.00,,---,0.00,VWS V14.00,2013-01-03 03:55:00,
2013-01-02 22:56:00,19.7,15.7,30.14,South,186,1.0,5.0,84,0.00,,---,0.00,VWS V14.00,2013-01-03 03:56:00,
2013-01-02 22:58:00,19.7,15.9,30.14,South,178,1.0,5.0,85,0.00,,---,0.00,VWS V14.00,2013-01-03 03:58:00,
2013-01-02 22:59:00,19.7,15.9,30.14,South,178,2.0,2.0,85,0.00,,---,0.00,VWS V14.00,2013-01-03 03:59:00,
2013-01-02 23:01:00,19.7,15.7,30.14,SSW,198,1.0,7.0,84,0.00,,---,0.00,VWS V14.00,2013-01-03 04:01:00,
2013-01-02 23:03:00,19.7,15.7,30.14,SSW,196,0.0,7.0,84,0.00,,---,0.00,VWS V14.00,2013-01-03 04:03:00,
2013-01-02 23:04:00,19.7,15.7,30.14,SSW,192,0.0,7.0,84,0.00,,---,0.00,VWS V14.00,2013-01-03 04:04:00,
2013-01-02 23:05:00,19.7,15.7,30.14,South,188,2.0,7.0,84,0.00,,---,0.00,VWS V14.00,2013-01-03 04:05:00,
2013-01-02 23:06:00,19.7,15.7,30.14,South,186,0.0,7.0,84,0.00,,---,0.00,VWS V14.00,2013-01-03 04:06:00,
2013-01-02 23:08:00,19.7,15.7,30.13,SSW,194,3.0,7.0,84,0.00,,---,0.00,VWS V14.00,2013-01-03 04:08:00,
2013-01-02 23:10:00,19.6,15.6,30.14,SSW,194,1.0,7.0,84,0.00,,---,0.00,VWS V14.00,2013-01-03 04:10:00,
2013-01-02 23:11:00,19.5,15.5,30.14,SSW,194,0.0,7.0,84,0.00,,---,0.00,VWS V14.00,2013-01-03 04:11:00,
2013-01-02 23:14:00,19.5,15.5,30.14,SSW,195,2.0,7.0,84,0.00,,---,0.00,VWS V14.00,2013-01-03 04:14:00,
2013-01-02 23:16:00,19.5,15.5,30.14,South,183,0.0,7.0,84,0.00,,---,0.00,VWS V14.00,2013-01-03 04:16:00,
2013-01-02 23:17:00,19.5,15.5,30.14,South,183,1.0,7.0,84,0.00,,---,0.00,VWS V14.00,2013-01-03 04:17:00,
2013-01-02 23:18:00,19.4,15.1,30.14,South,182,2.0,7.0,83,0.00,,---,0.00,VWS V14.00,2013-01-03 04:18:00,
2013-01-02 23:20:00,19.4,15.1,30.14,South,175,1.0,7.0,83,0.00,,---,0.00,VWS V14.00,2013-01-03 04:20:00,
2013-01-02 23:21:00,19.4,15.1,30.14,South,183,4.0,7.0,83,0.00,,---,0.00,VWS V14.00,2013-01-03 04:21:00,
2013-01-02 23:25:00,19.4,15.1,30.14,SSW,193,1.0,7.0,83,0.00,,---,0.00,VWS V14.00,2013-01-03 04:25:00,
2013-01-02 23:26:00,19.3,15.0,30.14,South,177,0.0,7.0,83,0.00,,---,0.00,VWS V14.00,2013-01-03 04:26:00,
2013-01-02 23:28:00,19.3,15.0,30.14,SW,220,3.0,7.0,83,0.00,,---,0.00,VWS V14.00,2013-01-03 04:28:00,
2013-01-02 23:29:00,19.2,14.9,30.13,SSW,197,4.0,5.0,83,0.00,,---,0.00,VWS V14.00,2013-01-03 04:29:00,
2013-01-02 23:31:00,19.2,14.9,30.13,South,188,6.0,6.0,83,0.00,,---,0.00,VWS V14.00,2013-01-03 04:31:00,
2013-01-02 23:32:00,19.2,14.9,30.13,South,184,3.0,6.0,83,0.00,,---,0.00,VWS V14.00,2013-01-03 04:32:00,
2013-01-02 23:34:00,19.2,14.9,30.13,South,181,0.0,6.0,83,0.00,,---,0.00,VWS V14.00,2013-01-03 04:34:00,
2013-01-02 23:36:00,19.1,14.5,30.13,South,180,0.0,6.0,82,0.00,,---,0.00,VWS V14.00,2013-01-03 04:36:00,
2013-01-02 23:38:00,19.1,14.5,30.13,South,178,3.0,6.0,82,0.00,,---,0.00,VWS V14.00,2013-01-03 04:38:00,
2013-01-02 23:40:00,19.1,14.8,30.13,South,176,0.0,6.0,83,0.00,,---,0.00,VWS V14.00,2013-01-03 04:40:00,
2013-01-02 23:41:00,19.1,14.8,30.13,South,188,0.0,6.0,83,0.00,,---,0.00,VWS V14.00,2013-01-03 04:41:00,
2013-01-02 23:43:00,19.1,14.8,30.13,South,188,1.0,6.0,83,0.00,,---,0.00,VWS V14.00,2013-01-03 04:43:00,
2013-01-02 23:45:00,19.1,14.8,30.14,South,179,0.0,6.0,83,0.00,,---,0.00,VWS V14.00,2013-01-03 04:45:00,
2013-01-02 23:46:00,19.1,14.8,30.14,South,180,0.0,6.0,83,0.00,,---,0.00,VWS V14.00,2013-01-03 04:46:00,
2013-01-02 23:47:00,19.1,14.8,30.14,South,180,0.0,6.0,83,0.00,,---,0.00,VWS V14.00,2013-01-03 04:47:00,
2013-01-02 23:49:00,19.0,14.7,30.14,South,179,0.0,6.0,83,0.00,,---,0.00,VWS V14.00,2013-01-03 04:49:00,
2013-01-02 23:51:00,19.0,14.7,30.14,South,180,0.0,6.0,83,0.00,,---,0.00,VWS V14.00,2013-01-03 04:51:00,
2013-01-02 23:52:00,19.0,14.7,30.14,South,180,0.0,6.0,83,0.00,,---,0.00,VWS V14.00,2013-01-03 04:52:00,
2013-01-02 23:53:00,18.9,14.3,30.14,South,191,0.0,6.0,82,0.00,,---,0.00,VWS V14.00,2013-01-03 04:53:00,
2013-01-02 23:55:00,18.9,14.3,30.14,South,191,0.0,6.0,82,0.00,,---,0.00,VWS V14.00,2013-01-03 04:55:00,
2013-01-02 23:57:00,18.8,14.2,30.13,South,188,0.0,6.0,82,0.00,,---,0.00,VWS V14.00,2013-01-03 04:57:00,
2013-01-02 23:58:00,18.8,14.2,30.13,South,188,0.0,6.0,82,0.00,,---,0.00,VWS V14.00,2013-01-03 04:58:00,